| time (UTC) | temp F | wind direction | speed MPH | gust MPH | rain 1hr in | rain 24hr in | rain mn in | humidity % | barometer mb |
| 20260906222803 | 58 | 157 | 0.0 | 0.0 | 0.00 | 0.00 | 0.00 | 79 | 1065.7 |
| 20260906222641 | 58 | 157 | 0.0 | 0.0 | 0.00 | 0.00 | 0.00 | 79 | 1065.7 |
| 20260906222523 | 59 | 157 | 0.0 | 0.0 | 0.00 | 0.00 | 0.00 | 79 | 1065.6 |
| 20260906222418 | 59 | 157 | 0.0 | 0.0 | 0.00 | 0.00 | 0.00 | 79 | 1065.6 |
| 20260906222313 | 59 | 180 | 0.0 | 0.0 | 0.00 | 0.00 | 0.00 | 79 | 1065.7 |
| 20260906222206 | 59 | 157 | 0.0 | 0.0 | 0.00 | 0.00 | 0.00 | 79 | 1065.7 |
| 20260906222052 | 59 | 180 | 0.0 | 0.0 | 0.00 | 0.00 | 0.00 | 79 | 1065.9 |
| 20260906221940 | 59 | 180 | 0.0 | 0.0 | 0.00 | 0.00 | 0.00 | 79 | 1065.8 |
| 20260906221835 | 59 | 180 | 0.0 | 0.0 | 0.00 | 0.00 | 0.00 | 79 | 1065.8 |
| 20260906221728 | 59 | 180 | 0.0 | 0.0 | 0.00 | 0.00 | 0.00 | 79 | 1065.8 |
| 20260906221623 | 59 | 157 | 0.0 | 0.0 | 0.00 | 0.00 | 0.00 | 79 | 1065.8 |
| 20260906221516 | 59 | 180 | 0.0 | 0.0 | 0.00 | 0.00 | 0.00 | 79 | 1065.9 |
| 20260906221404 | 59 | 180 | 0.0 | 0.0 | 0.00 | 0.00 | 0.00 | 79 | 1065.9 |
| 20260906221255 | 59 | 157 | 0.0 | 0.0 | 0.00 | 0.00 | 0.00 | 79 | 1065.8 |
| 20260906221134 | 59 | 180 | 0.0 | 0.0 | 0.00 | 0.00 | 0.00 | 79 | 1066.0 |
| 20260906221020 | 59 | 180 | 0.0 | 0.0 | 0.00 | 0.00 | 0.00 | 79 | 1065.9 |
| 20260906220913 | 59 | 157 | 0.0 | 0.0 | 0.00 | 0.00 | 0.00 | 79 | 1065.9 |
| 20260906220758 | 59 | 157 | 0.0 | 0.0 | 0.00 | 0.00 | 0.00 | 79 | 1065.9 |
| 20260906220636 | 59 | 157 | 0.0 | 0.0 | 0.00 | 0.00 | 0.00 | 79 | 1065.8 |
| 20260906220523 | 59 | 180 | 0.0 | 0.0 | 0.00 | 0.00 | 0.00 | 79 | 1065.9 |
| 20260906220417 | 59 | 157 | 0.0 | 0.0 | 0.00 | 0.00 | 0.00 | 79 | 1065.9 |
| 20260906220311 | 59 | 157 | 0.0 | 0.0 | 0.00 | 0.00 | 0.00 | 79 | 1065.9 |
| 20260906220205 | 59 | 157 | 0.0 | 0.0 | 0.00 | 0.00 | 0.00 | 79 | 1065.9 |
| 20260906220052 | 59 | 157 | 0.0 | 0.0 | 0.00 | 0.00 | 0.00 | 79 | 1065.9 |
| 20260906215936 | 59 | 180 | 0.0 | 0.0 | 0.00 | 0.00 | 0.00 | 79 | 1065.9 |
| 20260906215824 | 59 | 157 | 0.0 | 0.0 | 0.00 | 0.00 | 0.00 | 79 | 1065.8 |
| 20260906215716 | 59 | 180 | 0.0 | 0.0 | 0.00 | 0.00 | 0.00 | 79 | 1065.8 |
| 20260906215609 | 59 | 157 | 0.0 | 0.0 | 0.00 | 0.00 | 0.00 | 79 | 1065.8 |
| 20260906215454 | 60 | 180 | 0.0 | 0.0 | 0.00 | 0.00 | 0.00 | 79 | 1065.8 |
| 20260906215327 | 60 | 180 | 0.0 | 0.0 | 0.00 | 0.00 | 0.00 | 79 | 1065.8 |
| 20260906215218 | 60 | 180 | 0.0 | 0.0 | 0.00 | 0.00 | 0.00 | 79 | 1065.9 |
| 20260906215105 | 60 | 180 | 0.0 | 0.0 | 0.00 | 0.00 | 0.00 | 79 | 1065.9 |
| 20260906214959 | 60 | 180 | 0.0 | 0.0 | 0.00 | 0.00 | 0.00 | 79 | 1065.9 |
| 20260906214853 | 60 | 157 | 0.0 | 0.0 | 0.00 | 0.00 | 0.00 | 79 | 1065.9 |
| 20260906214746 | 60 | 180 | 0.0 | 0.0 | 0.00 | 0.00 | 0.00 | 79 | 1066.0 |
| 20260906214640 | 60 | 180 | 0.0 | 0.0 | 0.00 | 0.00 | 0.00 | 79 | 1065.9 |
| 20260906214527 | 60 | 157 | 3.0 | 0.0 | 0.00 | 0.00 | 0.00 | 79 | 1066.0 |
| 20260906214407 | 60 | 180 | 0.0 | 0.0 | 0.00 | 0.00 | 0.00 | 79 | 1065.9 |
| 20260906214252 | 60 | 157 | 0.0 | 0.0 | 0.00 | 0.00 | 0.00 | 78 | 1066.0 |
| 20260906214132 | 60 | 157 | 0.0 | 0.0 | 0.00 | 0.00 | 0.00 | 78 | 1065.9 |
| 20260906214020 | 60 | 157 | 0.0 | 0.0 | 0.00 | 0.00 | 0.00 | 78 | 1066.0 |
| 20260906213916 | 60 | 157 | 0.0 | 0.0 | 0.00 | 0.00 | 0.00 | 78 | 1066.0 |
| 20260906213810 | 60 | 157 | 0.0 | 0.0 | 0.00 | 0.00 | 0.00 | 78 | 1066.0 |
| 20260906213703 | 60 | 157 | 0.0 | 0.0 | 0.00 | 0.00 | 0.00 | 78 | 1066.0 |
| 20260906213541 | 60 | 157 | 0.0 | 0.0 | 0.00 | 0.00 | 0.00 | 78 | 1066.0 |
| 20260906213429 | 60 | 157 | 0.0 | 0.0 | 0.00 | 0.00 | 0.00 | 78 | 1066.1 |
| 20260906213310 | 60 | 180 | 0.0 | 0.0 | 0.00 | 0.00 | 0.00 | 78 | 1066.0 |
| 20260906213203 | 60 | 180 | 0.0 | 0.0 | 0.00 | 0.00 | 0.00 | 78 | 1066.0 |
| 20260906213049 | 60 | 180 | 0.0 | 0.0 | 0.00 | 0.00 | 0.00 | 78 | 1066.0 |
| 20260906212938 | 60 | 180 | 0.0 | 0.0 | 0.00 | 0.00 | 0.00 | 78 | 1066.0 |
| 20260906212823 | 60 | 180 | 0.0 | 0.0 | 0.00 | 0.00 | 0.00 | 78 | 1066.0 |
| 20260906212710 | 60 | 225 | 0.0 | 0.0 | 0.00 | 0.00 | 0.00 | 78 | 1066.0 |
| 20260906212556 | 60 | 157 | 0.0 | 0.0 | 0.00 | 0.00 | 0.00 | 78 | 1066.0 |
| 20260906212436 | 60 | 180 | 0.0 | 0.0 | 0.00 | 0.00 | 0.00 | 78 | 1066.0 |
| 20260906212323 | 60 | 135 | 0.0 | 0.0 | 0.00 | 0.00 | 0.00 | 78 | 1065.9 |
| 20260906212218 | 60 | 135 | 3.0 | 0.0 | 0.00 | 0.00 | 0.00 | 78 | 1066.0 |
| 20260906212112 | 60 | 157 | 0.0 | 0.0 | 0.00 | 0.00 | 0.00 | 77 | 1065.9 |
| 20260906211958 | 60 | 157 | 0.0 | 0.0 | 0.00 | 0.00 | 0.00 | 77 | 1066.0 |
| 20260906211838 | 60 | 157 | 0.0 | 0.0 | 0.00 | 0.00 | 0.00 | 77 | 1066.0 |
| 20260906211726 | 60 | 157 | 0.0 | 0.0 | 0.00 | 0.00 | 0.00 | 77 | 1066.0 |
| 20260906211620 | 60 | 157 | 0.0 | 0.0 | 0.00 | 0.00 | 0.00 | 77 | 1066.0 |
| 20260906211514 | 60 | 157 | 0.0 | 0.0 | 0.00 | 0.00 | 0.00 | 77 | 1066.0 |
| 20260906211354 | 60 | 157 | 0.0 | 0.0 | 0.00 | 0.00 | 0.00 | 77 | 1066.0 |
| 20260906211240 | 60 | 157 | 0.0 | 0.0 | 0.00 | 0.00 | 0.00 | 77 | 1066.0 |
| 20260906211127 | 61 | 157 | 0.0 | 0.0 | 0.00 | 0.00 | 0.00 | 77 | 1066.0 |
| 20260906211006 | 61 | 157 | 0.0 | 0.0 | 0.00 | 0.00 | 0.00 | 77 | 1066.0 |
| 20260906210853 | 61 | 157 | 0.0 | 0.0 | 0.00 | 0.00 | 0.00 | 77 | 1066.0 |
| 20260906210740 | 61 | 157 | 0.0 | 0.0 | 0.00 | 0.00 | 0.00 | 78 | 1066.0 |
| 20260906210618 | 61 | 157 | 0.0 | 0.0 | 0.00 | 0.00 | 0.00 | 78 | 1066.0 |
| 20260906210505 | 61 | 135 | 0.0 | 0.0 | 0.00 | 0.00 | 0.00 | 78 | 1066.0 |
| 20260906210352 | 60 | 135 | 0.0 | 0.0 | 0.00 | 0.00 | 0.00 | 78 | 1066.0 |
| 20260906210232 | 60 | 180 | 0.0 | 0.0 | 0.00 | 0.00 | 0.00 | 78 | 1066.0 |
| 20260906210118 | 60 | 157 | 0.0 | 0.0 | 0.00 | 0.00 | 0.00 | 78 | 1066.0 |
| 20260906210004 | 60 | 157 | 0.0 | 0.0 | 0.00 | 0.00 | 0.00 | 78 | 1066.0 |
| 20260906205851 | 60 | 157 | 0.0 | 0.0 | 0.00 | 0.00 | 0.00 | 78 | 1066.0 |
| 20260906205739 | 60 | 157 | 0.0 | 0.0 | 0.00 | 0.00 | 0.00 | 77 | 1066.0 |
| 20260906205625 | 60 | 180 | 0.0 | 0.0 | 0.00 | 0.00 | 0.00 | 77 | 1065.9 |
| 20260906205513 | 60 | 157 | 0.0 | 0.0 | 0.00 | 0.00 | 0.00 | 77 | 1066.0 |
| 20260906205408 | 61 | 157 | 0.0 | 0.0 | 0.00 | 0.00 | 0.00 | 77 | 1066.0 |
| 20260906205255 | 61 | 157 | 0.0 | 0.0 | 0.00 | 0.00 | 0.00 | 77 | 1066.0 |
| 20260906205141 | 61 | 157 | 0.0 | 0.0 | 0.00 | 0.00 | 0.00 | 77 | 1066.0 |
| 20260906205028 | 61 | 157 | 0.0 | 0.0 | 0.00 | 0.00 | 0.00 | 76 | 1066.0 |
| 20260906204915 | 61 | 157 | 0.0 | 0.0 | 0.00 | 0.00 | 0.00 | 76 | 1066.0 |
| 20260906204810 | 61 | 157 | 0.0 | 0.0 | 0.00 | 0.00 | 0.00 | 76 | 1066.1 |
| 20260906204656 | 61 | 157 | 0.0 | 0.0 | 0.00 | 0.00 | 0.00 | 76 | 1066.2 |
| 20260906204536 | 61 | 180 | 0.0 | 0.0 | 0.00 | 0.00 | 0.00 | 76 | 1066.1 |
| 20260906204425 | 61 | 157 | 0.0 | 0.0 | 0.00 | 0.00 | 0.00 | 76 | 1066.2 |
| 20260906204319 | 61 | 157 | 0.0 | 0.0 | 0.00 | 0.00 | 0.00 | 76 | 1066.1 |
| 20260906204215 | 61 | 157 | 0.0 | 0.0 | 0.00 | 0.00 | 0.00 | 76 | 1066.2 |
| 20260906204109 | 62 | 157 | 0.0 | 0.0 | 0.00 | 0.00 | 0.00 | 76 | 1066.2 |
| 20260906204003 | 62 | 157 | 0.0 | 0.0 | 0.00 | 0.00 | 0.00 | 76 | 1066.2 |
| 20260906203858 | 62 | 157 | 3.0 | 0.0 | 0.00 | 0.00 | 0.00 | 76 | 1066.2 |
| 20260906203728 | 62 | 202 | 0.0 | 0.0 | 0.00 | 0.00 | 0.00 | 75 | 1066.2 |
| 20260906203608 | 62 | 135 | 3.0 | 0.0 | 0.00 | 0.00 | 0.00 | 75 | 1066.2 |
| 20260906203502 | 62 | 135 | 6.0 | 0.0 | 0.00 | 0.00 | 0.00 | 75 | 1066.2 |
| 20260906203352 | 62 | 157 | 0.0 | 0.0 | 0.00 | 0.00 | 0.00 | 75 | 1066.3 |
| 20260906203245 | 62 | 157 | 4.0 | 0.0 | 0.00 | 0.00 | 0.00 | 75 | 1066.3 |
| 20260906203139 | 62 | 180 | 7.0 | 0.0 | 0.00 | 0.00 | 0.00 | 75 | 1066.2 |
| 20260906203026 | 62 | 157 | 0.0 | 0.0 | 0.00 | 0.00 | 0.00 | 75 | 1066.3 |
| 20260906202904 | 62 | 180 | 0.0 | 0.0 | 0.00 | 0.00 | 0.00 | 75 | 1066.3 |
| 20260906202743 | 62 | 157 | 0.0 | 0.0 | 0.00 | 0.00 | 0.00 | 75 | 1066.3 |
| 20260906202630 | 62 | 157 | 3.0 | 0.0 | 0.00 | 0.00 | 0.00 | 75 | 1066.3 |
| 20260906202517 | 62 | 157 | 0.0 | 0.0 | 0.00 | 0.00 | 0.00 | 74 | 1066.3 |
| 20260906202412 | 62 | 202 | 0.0 | 0.0 | 0.00 | 0.00 | 0.00 | 74 | 1066.3 |
| 20260906202301 | 62 | 202 | 0.0 | 0.0 | 0.00 | 0.00 | 0.00 | 74 | 1066.3 |
| 20260906202153 | 63 | 180 | 0.0 | 0.0 | 0.00 | 0.00 | 0.00 | 74 | 1066.3 |
| 20260906202040 | 63 | 157 | 7.0 | 0.0 | 0.00 | 0.00 | 0.00 | 74 | 1066.3 |
| 20260906201927 | 63 | 157 | 0.0 | 0.0 | 0.00 | 0.00 | 0.00 | 74 | 1066.3 |
| 20260906201800 | 63 | 157 | 0.0 | 0.0 | 0.00 | 0.00 | 0.00 | 74 | 1066.3 |
| 20260906201654 | 63 | 157 | 0.0 | 0.0 | 0.00 | 0.00 | 0.00 | 74 | 1066.4 |
| 20260906201540 | 63 | 112 | 0.0 | 0.0 | 0.00 | 0.00 | 0.00 | 74 | 1066.3 |
| 20260906201427 | 63 | 180 | 5.0 | 0.0 | 0.00 | 0.00 | 0.00 | 74 | 1066.3 |
| 20260906201314 | 63 | 180 | 0.0 | 0.0 | 0.00 | 0.00 | 0.00 | 74 | 1066.3 |
| 20260906201201 | 63 | 135 | 0.0 | 0.0 | 0.00 | 0.00 | 0.00 | 74 | 1066.3 |
| 20260906201047 | 63 | 180 | 4.0 | 0.0 | 0.00 | 0.00 | 0.00 | 74 | 1066.3 |
| 20260906200927 | 63 | 180 | 2.0 | 0.0 | 0.00 | 0.00 | 0.00 | 74 | 1066.3 |
| 20260906200813 | 63 | 157 | 0.0 | 0.0 | 0.00 | 0.00 | 0.00 | 74 | 1066.3 |
| 20260906200701 | 63 | 157 | 4.0 | 0.0 | 0.00 | 0.00 | 0.00 | 74 | 1066.3 |
| 20260906200539 | 63 | 202 | 6.0 | 0.0 | 0.00 | 0.00 | 0.00 | 74 | 1066.3 |
| 20260906200426 | 63 | 135 | 7.0 | 0.0 | 0.00 | 0.00 | 0.00 | 74 | 1066.3 |
| 20260906200312 | 63 | 135 | 6.0 | 0.0 | 0.00 | 0.00 | 0.00 | 74 | 1066.3 |
| 20260906200151 | 63 | 157 | 9.0 | 0.0 | 0.00 | 0.00 | 0.00 | 74 | 1066.3 |
| 20260906200024 | 63 | 135 | 0.0 | 0.0 | 0.00 | 0.00 | 0.00 | 74 | 1066.3 |
| 20260906195909 | 63 | 157 | 0.0 | 0.0 | 0.00 | 0.00 | 0.00 | 74 | 1066.3 |
| 20260906195747 | 63 | 135 | 6.0 | 0.0 | 0.00 | 0.00 | 0.00 | 74 | 1066.3 |
| 20260906195636 | 63 | 157 | 6.0 | 0.0 | 0.00 | 0.00 | 0.00 | 74 | 1066.3 |
| 20260906195530 | 63 | 180 | 8.0 | 0.0 | 0.00 | 0.00 | 0.00 | 74 | 1066.4 |
| 20260906195416 | 63 | 112 | 5.0 | 0.0 | 0.00 | 0.00 | 0.00 | 74 | 1066.3 |
| 20260906195256 | 63 | 157 | 3.0 | 0.0 | 0.00 | 0.00 | 0.00 | 74 | 1066.4 |
| 20260906195150 | 63 | 157 | 0.0 | 0.0 | 0.00 | 0.00 | 0.00 | 74 | 1066.4 |
| 20260906195039 | 63 | 157 | 10.0 | 0.0 | 0.00 | 0.00 | 0.00 | 74 | 1066.4 |
| 20260906194934 | 63 | 135 | 6.0 | 0.0 | 0.00 | 0.00 | 0.00 | 74 | 1066.4 |
| 20260906194820 | 63 | 157 | 3.0 | 0.0 | 0.00 | 0.00 | 0.00 | 74 | 1066.5 |
| 20260906194706 | 63 | 135 | 0.0 | 0.0 | 0.00 | 0.00 | 0.00 | 74 | 1066.5 |
| 20260906194553 | 63 | 157 | 5.0 | 0.0 | 0.00 | 0.00 | 0.00 | 74 | 1066.6 |
| 20260906194447 | 63 | 157 | 0.0 | 0.0 | 0.00 | 0.00 | 0.00 | 74 | 1066.4 |
| 20260906194337 | 63 | 135 | 7.0 | 0.0 | 0.00 | 0.00 | 0.00 | 74 | 1066.6 |
| 20260906194229 | 63 | 135 | 2.0 | 0.0 | 0.00 | 0.00 | 0.00 | 74 | 1066.5 |
| 20260906194116 | 63 | 135 | 6.0 | 0.0 | 0.00 | 0.00 | 0.00 | 74 | 1066.5 |
| 20260906194004 | 63 | 157 | 6.0 | 0.0 | 0.00 | 0.00 | 0.00 | 74 | 1066.6 |
| 20260906193851 | 63 | 157 | 5.0 | 0.0 | 0.00 | 0.00 | 0.00 | 74 | 1066.8 |
| 20260906193745 | 63 | 135 | 3.0 | 0.0 | 0.00 | 0.00 | 0.00 | 74 | 1066.7 |
| 20260906193624 | 63 | 135 | 5.0 | 0.0 | 0.00 | 0.00 | 0.00 | 75 | 1066.8 |
| 20260906193503 | 63 | 157 | 0.0 | 0.0 | 0.00 | 0.00 | 0.00 | 75 | 1066.8 |
| 20260906193358 | 63 | 135 | 4.0 | 0.0 | 0.00 | 0.00 | 0.00 | 75 | 1066.8 |
| 20260906193238 | 63 | 157 | 0.0 | 0.0 | 0.00 | 0.00 | 0.00 | 75 | 1066.8 |
| 20260906193132 | 63 | 135 | 5.0 | 0.0 | 0.00 | 0.00 | 0.00 | 75 | 1066.9 |
| 20260906193018 | 63 | 135 | 4.0 | 0.0 | 0.00 | 0.00 | 0.00 | 75 | 1066.9 |
| 20260906192905 | 63 | 135 | 0.0 | 0.0 | 0.00 | 0.00 | 0.00 | 75 | 1066.9 |
| 20260906192759 | 63 | 135 | 5.0 | 0.0 | 0.00 | 0.00 | 0.00 | 75 | 1067.0 |
| 20260906192639 | 63 | 135 | 0.0 | 0.0 | 0.00 | 0.00 | 0.00 | 75 | 1067.0 |
| 20260906192502 | 63 | 135 | 0.0 | 0.0 | 0.00 | 0.00 | 0.00 | 75 | 1067.1 |
| 20260906192359 | 63 | 135 | 2.0 | 0.0 | 0.00 | 0.00 | 0.00 | 75 | 1067.0 |
| 20260906192251 | 63 | 135 | 0.0 | 0.0 | 0.00 | 0.00 | 0.00 | 74 | 1067.0 |
| 20260906192131 | 62 | 135 | 5.0 | 0.0 | 0.00 | 0.00 | 0.00 | 74 | 1067.1 |
| 20260906192019 | 63 | 135 | 0.0 | 0.0 | 0.00 | 0.00 | 0.00 | 74 | 1067.2 |
| 20260906191912 | 63 | 135 | 0.0 | 0.0 | 0.00 | 0.00 | 0.00 | 74 | 1067.1 |
| 20260906191807 | 63 | 112 | 0.0 | 0.0 | 0.00 | 0.00 | 0.00 | 74 | 1067.2 |
| 20260906191647 | 63 | 135 | 0.0 | 0.0 | 0.00 | 0.00 | 0.00 | 74 | 1067.3 |
| 20260906191543 | 63 | 135 | 2.0 | 0.0 | 0.00 | 0.00 | 0.00 | 74 | 1067.2 |
| 20260906191437 | 63 | 157 | 0.0 | 0.0 | 0.00 | 0.00 | 0.00 | 74 | 1067.3 |
| 20260906191330 | 63 | 157 | 0.0 | 0.0 | 0.00 | 0.00 | 0.00 | 74 | 1067.3 |
| 20260906191218 | 63 | 135 | 0.0 | 0.0 | 0.00 | 0.00 | 0.00 | 74 | 1067.2 |
| 20260906191056 | 63 | 135 | 0.0 | 0.0 | 0.00 | 0.00 | 0.00 | 74 | 1067.3 |
| 20260906190944 | 63 | 135 | 2.0 | 0.0 | 0.00 | 0.00 | 0.00 | 73 | 1067.3 |
| 20260906190824 | 63 | 157 | 0.0 | 0.0 | 0.00 | 0.00 | 0.00 | 73 | 1067.2 |
| 20260906190716 | 63 | 135 | 0.0 | 0.0 | 0.00 | 0.00 | 0.00 | 73 | 1067.2 |
| 20260906190556 | 63 | 135 | 0.0 | 0.0 | 0.00 | 0.00 | 0.00 | 73 | 1067.4 |
| 20260906190451 | 63 | 157 | 0.0 | 0.0 | 0.00 | 0.00 | 0.00 | 73 | 1067.4 |
| 20260906190337 | 63 | 135 | 2.0 | 0.0 | 0.00 | 0.00 | 0.00 | 73 | 1067.5 |
| 20260906190208 | 63 | 135 | 0.0 | 0.0 | 0.00 | 0.00 | 0.00 | 73 | 1067.4 |
| 20260906190056 | 63 | 135 | 0.0 | 0.0 | 0.00 | 0.00 | 0.00 | 72 | 1067.5 |
| 20260906185949 | 63 | 135 | 0.0 | 0.0 | 0.00 | 0.00 | 0.00 | 72 | 1067.5 |
| 20260906185827 | 63 | 135 | 0.0 | 0.0 | 0.00 | 0.00 | 0.00 | 72 | 1067.4 |
| 20260906185712 | 63 | 135 | 0.0 | 0.0 | 0.00 | 0.00 | 0.00 | 72 | 1067.5 |
| 20260906185559 | 63 | 135 | 0.0 | 0.0 | 0.00 | 0.00 | 0.00 | 72 | 1067.4 |
| 20260906185452 | 63 | 135 | 0.0 | 0.0 | 0.00 | 0.00 | 0.00 | 72 | 1067.5 |
| 20260906185346 | 63 | 135 | 0.0 | 0.0 | 0.00 | 0.00 | 0.00 | 72 | 1067.4 |
| 20260906185240 | 63 | 135 | 0.0 | 0.0 | 0.00 | 0.00 | 0.00 | 72 | 1067.6 |
| 20260906185134 | 63 | 157 | 0.0 | 0.0 | 0.00 | 0.00 | 0.00 | 72 | 1067.6 |
| 20260906185028 | 63 | 157 | 0.0 | 0.0 | 0.00 | 0.00 | 0.00 | 72 | 1067.5 |
| 20260906184922 | 63 | 135 | 0.0 | 0.0 | 0.00 | 0.00 | 0.00 | 72 | 1067.7 |
| 20260906184816 | 63 | 135 | 0.0 | 0.0 | 0.00 | 0.00 | 0.00 | 72 | 1067.5 |
| 20260906184711 | 63 | 135 | 0.0 | 0.0 | 0.00 | 0.00 | 0.00 | 72 | 1067.6 |
| 20260906184607 | 63 | 157 | 0.0 | 0.0 | 0.00 | 0.00 | 0.00 | 72 | 1067.5 |
| 20260906184501 | 63 | 157 | 3.0 | 0.0 | 0.00 | 0.00 | 0.00 | 72 | 1067.5 |
| 20260906184356 | 63 | 135 | 0.0 | 0.0 | 0.00 | 0.00 | 0.00 | 72 | 1067.5 |
| 20260906184226 | 63 | 135 | 0.0 | 0.0 | 0.00 | 0.00 | 0.00 | 72 | 1067.5 |
| 20260906184113 | 63 | 135 | 0.0 | 0.0 | 0.00 | 0.00 | 0.00 | 72 | 1067.5 |
| 20260906184009 | 63 | 135 | 0.0 | 0.0 | 0.00 | 0.00 | 0.00 | 72 | 1067.5 |
| 20260906183906 | 63 | 157 | 0.0 | 0.0 | 0.00 | 0.00 | 0.00 | 72 | 1067.5 |
| 20260906183758 | 63 | 135 | 0.0 | 0.0 | 0.00 | 0.00 | 0.00 | 72 | 1067.5 |
| 20260906183638 | 63 | 157 | 0.0 | 0.0 | 0.00 | 0.00 | 0.00 | 72 | 1067.6 |
| 20260906183524 | 63 | 135 | 0.0 | 0.0 | 0.00 | 0.00 | 0.00 | 72 | 1067.6 |
| 20260906183411 | 63 | 135 | 0.0 | 0.0 | 0.00 | 0.00 | 0.00 | 71 | 1067.7 |
| 20260906183305 | 63 | 157 | 0.0 | 0.0 | 0.00 | 0.00 | 0.00 | 71 | 1067.6 |
| 20260906183155 | 63 | 135 | 0.0 | 0.0 | 0.00 | 0.00 | 0.00 | 71 | 1067.6 |
| 20260906183047 | 63 | 135 | 0.0 | 0.0 | 0.00 | 0.00 | 0.00 | 71 | 1067.5 |
| 20260906182926 | 64 | 157 | 0.0 | 0.0 | 0.00 | 0.00 | 0.00 | 71 | 1067.5 |
| 20260906182814 | 64 | 135 | 3.0 | 0.0 | 0.00 | 0.00 | 0.00 | 71 | 1067.7 |
| 20260906182709 | 64 | 135 | 0.0 | 0.0 | 0.00 | 0.00 | 0.00 | 71 | 1067.7 |
| 20260906182603 | 64 | 157 | 0.0 | 0.0 | 0.00 | 0.00 | 0.00 | 71 | 1067.6 |
| 20260906182450 | 64 | 157 | 0.0 | 0.0 | 0.00 | 0.00 | 0.00 | 71 | 1067.6 |
| 20260906182329 | 64 | 135 | 0.0 | 0.0 | 0.00 | 0.00 | 0.00 | 71 | 1067.6 |
| 20260906182216 | 64 | 135 | 0.0 | 0.0 | 0.00 | 0.00 | 0.00 | 70 | 1067.5 |
| 20260906182111 | 64 | 157 | 0.0 | 0.0 | 0.00 | 0.00 | 0.00 | 70 | 1067.5 |
| 20260906182006 | 64 | 157 | 0.0 | 0.0 | 0.00 | 0.00 | 0.00 | 70 | 1067.5 |
| 20260906181853 | 64 | 157 | 0.0 | 0.0 | 0.00 | 0.00 | 0.00 | 70 | 1067.5 |
| 20260906181739 | 64 | 135 | 4.0 | 0.0 | 0.00 | 0.00 | 0.00 | 70 | 1067.4 |
| 20260906181618 | 64 | 157 | 0.0 | 0.0 | 0.00 | 0.00 | 0.00 | 70 | 1067.7 |
| 20260906181507 | 64 | 157 | 0.0 | 0.0 | 0.00 | 0.00 | 0.00 | 70 | 1067.5 |
| 20260906181354 | 64 | 135 | 5.0 | 0.0 | 0.00 | 0.00 | 0.00 | 70 | 1067.5 |
| 20260906181247 | 64 | 157 | 0.0 | 0.0 | 0.00 | 0.00 | 0.00 | 70 | 1067.6 |
| 20260906181134 | 64 | 157 | 0.0 | 0.0 | 0.00 | 0.00 | 0.00 | 70 | 1067.6 |
| 20260906181020 | 64 | 157 | 0.0 | 0.0 | 0.00 | 0.00 | 0.00 | 70 | 1067.6 |
| 20260906180901 | 64 | 157 | 0.0 | 0.0 | 0.00 | 0.00 | 0.00 | 70 | 1067.7 |
| 20260906180739 | 64 | 135 | 2.0 | 0.0 | 0.00 | 0.00 | 0.00 | 69 | 1067.8 |
| 20260906180633 | 64 | 135 | 3.0 | 0.0 | 0.00 | 0.00 | 0.00 | 69 | 1067.7 |
| 20260906180521 | 64 | 157 | 0.0 | 0.0 | 0.00 | 0.00 | 0.00 | 69 | 1067.7 |
| 20260906180407 | 64 | 135 | 0.0 | 0.0 | 0.00 | 0.00 | 0.00 | 69 | 1067.6 |
| 20260906180255 | 64 | 135 | 3.0 | 0.0 | 0.00 | 0.00 | 0.00 | 69 | 1067.7 |
| 20260906180151 | 65 | 135 | 0.0 | 0.0 | 0.00 | 0.00 | 0.00 | 69 | 1067.7 |
| 20260906180046 | 65 | 157 | 2.0 | 0.0 | 0.00 | 0.00 | 0.00 | 69 | 1067.8 |
| 20260906175939 | 65 | 135 | 3.0 | 0.0 | 0.00 | 0.00 | 0.00 | 69 | 1067.7 |
| 20260906175826 | 65 | 135 | 0.0 | 0.0 | 0.00 | 0.00 | 0.00 | 69 | 1067.7 |
| 20260906175721 | 65 | 135 | 0.0 | 0.0 | 0.00 | 0.00 | 0.00 | 69 | 1067.8 |
| 20260906175600 | 65 | 135 | 3.0 | 0.0 | 0.00 | 0.00 | 0.00 | 69 | 1067.8 |
| 20260906175439 | 65 | 135 | 0.0 | 0.0 | 0.00 | 0.00 | 0.00 | 69 | 1067.9 |
| 20260906175334 | 65 | 135 | 0.0 | 0.0 | 0.00 | 0.00 | 0.00 | 69 | 1067.9 |
| 20260906175228 | 65 | 135 | 0.0 | 0.0 | 0.00 | 0.00 | 0.00 | 69 | 1067.9 |
| 20260906175107 | 65 | 135 | 0.0 | 0.0 | 0.00 | 0.00 | 0.00 | 68 | 1067.9 |
| 20260906174954 | 65 | 135 | 0.0 | 0.0 | 0.00 | 0.00 | 0.00 | 68 | 1068.0 |
| 20260906174841 | 65 | 157 | 0.0 | 0.0 | 0.00 | 0.00 | 0.00 | 68 | 1068.0 |
| 20260906174737 | 65 | 157 | 0.0 | 0.0 | 0.00 | 0.00 | 0.00 | 68 | 1067.9 |
| 20260906174631 | 65 | 135 | 0.0 | 0.0 | 0.00 | 0.00 | 0.00 | 68 | 1067.9 |
| 20260906174518 | 65 | 157 | 4.0 | 0.0 | 0.00 | 0.00 | 0.00 | 68 | 1068.0 |
| 20260906174412 | 65 | 135 | 0.0 | 0.0 | 0.00 | 0.00 | 0.00 | 68 | 1068.1 |
| 20260906174301 | 65 | 157 | 0.0 | 0.0 | 0.00 | 0.00 | 0.00 | 68 | 1068.0 |
| 20260906174155 | 65 | 157 | 0.0 | 0.0 | 0.00 | 0.00 | 0.00 | 67 | 1068.0 |
| 20260906174050 | 65 | 157 | 0.0 | 0.0 | 0.00 | 0.00 | 0.00 | 67 | 1068.0 |
| 20260906173943 | 65 | 135 | 0.0 | 0.0 | 0.00 | 0.00 | 0.00 | 67 | 1068.0 |
| 20260906173823 | 65 | 157 | 0.0 | 0.0 | 0.00 | 0.00 | 0.00 | 67 | 1067.9 |
| 20260906173710 | 65 | 157 | 2.0 | 0.0 | 0.00 | 0.00 | 0.00 | 67 | 1068.0 |
| 20260906173557 | 65 | 135 | 0.0 | 0.0 | 0.00 | 0.00 | 0.00 | 67 | 1068.0 |
| 20260906173436 | 65 | 157 | 0.0 | 0.0 | 0.00 | 0.00 | 0.00 | 67 | 1067.9 |
| 20260906173331 | 65 | 135 | 0.0 | 0.0 | 0.00 | 0.00 | 0.00 | 67 | 1068.0 |
| 20260906173218 | 66 | 135 | 0.0 | 0.0 | 0.00 | 0.00 | 0.00 | 67 | 1068.0 |
| 20260906173105 | 66 | 157 | 0.0 | 0.0 | 0.00 | 0.00 | 0.00 | 66 | 1068.0 |
| 20260906173002 | 66 | 157 | 0.0 | 0.0 | 0.00 | 0.00 | 0.00 | 66 | 1068.1 |
| 20260906172854 | 66 | 157 | 0.0 | 0.0 | 0.00 | 0.00 | 0.00 | 66 | 1068.1 |
| 20260906172744 | 66 | 157 | 0.0 | 0.0 | 0.00 | 0.00 | 0.00 | 66 | 1068.2 |
| 20260906172637 | 66 | 157 | 0.0 | 0.0 | 0.00 | 0.00 | 0.00 | 66 | 1068.1 |
| 20260906172524 | 66 | 157 | 0.0 | 0.0 | 0.00 | 0.00 | 0.00 | 66 | 1068.0 |
| 20260906172419 | 66 | 157 | 0.0 | 0.0 | 0.00 | 0.00 | 0.00 | 66 | 1068.1 |
| 20260906172314 | 66 | 157 | 0.0 | 0.0 | 0.00 | 0.00 | 0.00 | 66 | 1068.0 |
| 20260906172153 | 66 | 112 | 0.0 | 0.0 | 0.00 | 0.00 | 0.00 | 66 | 1068.0 |
| 20260906172040 | 66 | 135 | 0.0 | 0.0 | 0.00 | 0.00 | 0.00 | 66 | 1068.0 |
| 20260906171935 | 66 | 157 | 0.0 | 0.0 | 0.00 | 0.00 | 0.00 | 66 | 1068.0 |
| 20260906171813 | 66 | 157 | 0.0 | 0.0 | 0.00 | 0.00 | 0.00 | 66 | 1068.0 |
| 20260906171653 | 66 | 157 | 0.0 | 0.0 | 0.00 | 0.00 | 0.00 | 66 | 1068.0 |
| 20260906171547 | 66 | 157 | 0.0 | 0.0 | 0.00 | 0.00 | 0.00 | 66 | 1067.9 |
| 20260906171434 | 66 | 135 | 0.0 | 0.0 | 0.00 | 0.00 | 0.00 | 66 | 1067.9 |
| 20260906171329 | 66 | 180 | 0.0 | 0.0 | 0.00 | 0.00 | 0.00 | 66 | 1067.9 |
| 20260906171215 | 66 | 157 | 0.0 | 0.0 | 0.00 | 0.00 | 0.00 | 66 | 1067.9 |
| 20260906171103 | 66 | 135 | 0.0 | 0.0 | 0.00 | 0.00 | 0.00 | 66 | 1067.8 |
| 20260906170950 | 66 | 135 | 0.0 | 0.0 | 0.00 | 0.00 | 0.00 | 65 | 1067.8 |
| 20260906170836 | 66 | 157 | 0.0 | 0.0 | 0.00 | 0.00 | 0.00 | 65 | 1067.8 |
| 20260906170730 | 66 | 157 | 4.0 | 0.0 | 0.00 | 0.00 | 0.00 | 65 | 1067.8 |
| 20260906170623 | 66 | 135 | 0.0 | 0.0 | 0.00 | 0.00 | 0.00 | 65 | 1067.7 |
| 20260906170510 | 66 | 135 | 0.0 | 0.0 | 0.00 | 0.00 | 0.00 | 65 | 1067.7 |
| 20260906170356 | 66 | 157 | 0.0 | 0.0 | 0.00 | 0.00 | 0.00 | 65 | 1067.8 |
| 20260906170250 | 66 | 135 | 0.0 | 0.0 | 0.00 | 0.00 | 0.00 | 65 | 1067.8 |
| 20260906170131 | 66 | 135 | 0.0 | 0.0 | 0.00 | 0.00 | 0.00 | 64 | 1067.9 |
| 20260906170025 | 67 | 135 | 0.0 | 0.0 | 0.00 | 0.00 | 0.00 | 64 | 1067.9 |
| 20260906165920 | 67 | 135 | 0.0 | 0.0 | 0.00 | 0.00 | 0.00 | 64 | 1067.9 |
| 20260906165813 | 67 | 135 | 0.0 | 0.0 | 0.00 | 0.00 | 0.00 | 64 | 1068.0 |
| 20260906165707 | 67 | 157 | 3.0 | 0.0 | 0.00 | 0.00 | 0.00 | 64 | 1067.9 |
| 20260906165554 | 67 | 135 | 3.0 | 0.0 | 0.00 | 0.00 | 0.00 | 63 | 1068.0 |
| 20260906165441 | 67 | 135 | 0.0 | 0.0 | 0.00 | 0.00 | 0.00 | 63 | 1068.1 |
| 20260906165327 | 67 | 157 | 2.0 | 0.0 | 0.00 | 0.00 | 0.00 | 63 | 1068.0 |
| 20260906165206 | 67 | 135 | 0.0 | 0.0 | 0.00 | 0.00 | 0.00 | 63 | 1068.0 |
| 20260906165056 | 67 | 135 | 0.0 | 0.0 | 0.00 | 0.00 | 0.00 | 63 | 1068.1 |
| 20260906164948 | 67 | 135 | 0.0 | 0.0 | 0.00 | 0.00 | 0.00 | 63 | 1068.1 |
| 20260906164828 | 67 | 157 | 0.0 | 0.0 | 0.00 | 0.00 | 0.00 | 63 | 1068.0 |
| 20260906164722 | 67 | 135 | 0.0 | 0.0 | 0.00 | 0.00 | 0.00 | 63 | 1068.0 |
| 20260906164617 | 67 | 135 | 0.0 | 0.0 | 0.00 | 0.00 | 0.00 | 63 | 1068.0 |
| 20260906164456 | 67 | 135 | 0.0 | 0.0 | 0.00 | 0.00 | 0.00 | 63 | 1068.1 |
| 20260906164343 | 67 | 135 | 0.0 | 0.0 | 0.00 | 0.00 | 0.00 | 63 | 1068.2 |
| 20260906164230 | 67 | 135 | 0.0 | 0.0 | 0.00 | 0.00 | 0.00 | 62 | 1068.1 |
| 20260906164124 | 67 | 135 | 0.0 | 0.0 | 0.00 | 0.00 | 0.00 | 62 | 1068.2 |
| 20260906164012 | 67 | 135 | 0.0 | 0.0 | 0.00 | 0.00 | 0.00 | 62 | 1068.2 |
| 20260906163859 | 67 | 135 | 4.0 | 0.0 | 0.00 | 0.00 | 0.00 | 62 | 1068.1 |
| 20260906163756 | 67 | 135 | 4.0 | 0.0 | 0.00 | 0.00 | 0.00 | 62 | 1068.2 |
| 20260906163650 | 67 | 157 | 5.0 | 0.0 | 0.00 | 0.00 | 0.00 | 62 | 1068.2 |
| 20260906163535 | 68 | 157 | 4.0 | 0.0 | 0.00 | 0.00 | 0.00 | 62 | 1068.3 |
| 20260906163422 | 68 | 157 | 0.0 | 0.0 | 0.00 | 0.00 | 0.00 | 62 | 1068.3 |
| 20260906163317 | 68 | 157 | 0.0 | 0.0 | 0.00 | 0.00 | 0.00 | 62 | 1068.4 |
| 20260906163206 | 68 | 135 | 0.0 | 0.0 | 0.00 | 0.00 | 0.00 | 62 | 1068.4 |
| 20260906163100 | 68 | 157 | 0.0 | 0.0 | 0.00 | 0.00 | 0.00 | 62 | 1068.4 |
| 20260906162957 | 68 | 135 | 0.0 | 0.0 | 0.00 | 0.00 | 0.00 | 62 | 1068.5 |
| 20260906162849 | 68 | 135 | 0.0 | 0.0 | 0.00 | 0.00 | 0.00 | 61 | 1068.5 |
| 20260906162728 | 68 | 135 | 0.0 | 0.0 | 0.00 | 0.00 | 0.00 | 61 | 1068.6 |
| 20260906162614 | 68 | 157 | 0.0 | 0.0 | 0.00 | 0.00 | 0.00 | 61 | 1068.6 |
| 20260906162446 | 68 | 157 | 0.0 | 0.0 | 0.00 | 0.00 | 0.00 | 61 | 1068.7 |
| 20260906162341 | 68 | 157 | 2.0 | 0.0 | 0.00 | 0.00 | 0.00 | 61 | 1068.7 |
| 20260906162236 | 68 | 157 | 0.0 | 0.0 | 0.00 | 0.00 | 0.00 | 61 | 1068.6 |
| 20260906162123 | 68 | 135 | 0.0 | 0.0 | 0.00 | 0.00 | 0.00 | 61 | 1068.6 |
| 20260906162018 | 68 | 157 | 3.0 | 0.0 | 0.00 | 0.00 | 0.00 | 61 | 1068.5 |
| 20260906161913 | 68 | 180 | 0.0 | 0.0 | 0.00 | 0.00 | 0.00 | 61 | 1068.8 |
| 20260906161800 | 68 | 157 | 0.0 | 0.0 | 0.00 | 0.00 | 0.00 | 61 | 1068.7 |
| 20260906161654 | 68 | 135 | 0.0 | 0.0 | 0.00 | 0.00 | 0.00 | 61 | 1068.7 |
| 20260906161541 | 68 | 180 | 0.0 | 0.0 | 0.00 | 0.00 | 0.00 | 60 | 1068.8 |
| 20260906161436 | 68 | 157 | 0.0 | 0.0 | 0.00 | 0.00 | 0.00 | 60 | 1068.7 |
| 20260906161323 | 69 | 157 | 4.0 | 0.0 | 0.00 | 0.00 | 0.00 | 60 | 1068.7 |
| 20260906161210 | 69 | 180 | 6.0 | 0.0 | 0.00 | 0.00 | 0.00 | 60 | 1068.8 |
| 20260906161105 | 69 | 135 | 5.0 | 0.0 | 0.00 | 0.00 | 0.00 | 61 | 1068.7 |
| 20260906161000 | 69 | 135 | 0.0 | 0.0 | 0.00 | 0.00 | 0.00 | 61 | 1068.7 |
| 20260906160846 | 69 | 135 | 0.0 | 0.0 | 0.00 | 0.00 | 0.00 | 60 | 1068.8 |
| 20260906160717 | 69 | 157 | 0.0 | 0.0 | 0.00 | 0.00 | 0.00 | 60 | 1068.7 |
| 20260906160612 | 69 | 135 | 0.0 | 0.0 | 0.00 | 0.00 | 0.00 | 61 | 1068.8 |
| 20260906160446 | 69 | 135 | 0.0 | 0.0 | 0.00 | 0.00 | 0.00 | 60 | 1068.8 |
| 20260906160339 | 69 | 180 | 0.0 | 0.0 | 0.00 | 0.00 | 0.00 | 60 | 1068.8 |
| 20260906160233 | 69 | 157 | 0.0 | 0.0 | 0.00 | 0.00 | 0.00 | 60 | 1068.7 |
| 20260906160113 | 69 | 157 | 0.0 | 0.0 | 0.00 | 0.00 | 0.00 | 60 | 1068.9 |
| 20260906160007 | 69 | 157 | 0.0 | 0.0 | 0.00 | 0.00 | 0.00 | 60 | 1068.9 |
| 20260906155854 | 69 | 180 | 0.0 | 0.0 | 0.00 | 0.00 | 0.00 | 60 | 1068.9 |
| 20260906155732 | 69 | 157 | 2.0 | 0.0 | 0.00 | 0.00 | 0.00 | 60 | 1068.9 |
| 20260906155620 | 69 | 180 | 0.0 | 0.0 | 0.00 | 0.00 | 0.00 | 60 | 1068.8 |
| 20260906155507 | 69 | 180 | 0.0 | 0.0 | 0.00 | 0.00 | 0.00 | 60 | 1068.9 |
| 20260906155401 | 69 | 157 | 0.0 | 0.0 | 0.00 | 0.00 | 0.00 | 59 | 1068.9 |
| 20260906155242 | 69 | 157 | 0.0 | 0.0 | 0.00 | 0.00 | 0.00 | 59 | 1068.9 |
| 20260906155113 | 69 | 180 | 6.0 | 0.0 | 0.00 | 0.00 | 0.00 | 60 | 1068.9 |
| 20260906154944 | 69 | 180 | 0.0 | 0.0 | 0.00 | 0.00 | 0.00 | 59 | 1069.0 |
| 20260906154822 | 69 | 157 | 0.0 | 0.0 | 0.00 | 0.00 | 0.00 | 59 | 1069.0 |
| 20260906154644 | 69 | 180 | 2.0 | 0.0 | 0.00 | 0.00 | 0.00 | 59 | 1069.0 |
| 20260906154515 | 69 | 157 | 4.0 | 0.0 | 0.00 | 0.00 | 0.00 | 59 | 1069.1 |
| 20260906154401 | 69 | 157 | 7.0 | 0.0 | 0.00 | 0.00 | 0.00 | 59 | 1069.0 |
| 20260906154248 | 69 | 157 | 6.0 | 0.0 | 0.00 | 0.00 | 0.00 | 59 | 1069.0 |
| 20260906154125 | 69 | 180 | 3.0 | 0.0 | 0.00 | 0.00 | 0.00 | 59 | 1069.0 |
| 20260906154006 | 69 | 157 | 0.0 | 0.0 | 0.00 | 0.00 | 0.00 | 59 | 1069.0 |
| 20260906153900 | 69 | 180 | 0.0 | 0.0 | 0.00 | 0.00 | 0.00 | 60 | 1069.0 |
| 20260906153737 | 69 | 180 | 0.0 | 0.0 | 0.00 | 0.00 | 0.00 | 59 | 1069.0 |
| 20260906153619 | 69 | 180 | 0.0 | 0.0 | 0.00 | 0.00 | 0.00 | 59 | 1068.9 |
| 20260906153505 | 69 | 157 | 0.0 | 0.0 | 0.00 | 0.00 | 0.00 | 60 | 1068.9 |
| 20260906153352 | 69 | 157 | 0.0 | 0.0 | 0.00 | 0.00 | 0.00 | 60 | 1069.0 |
| 20260906153245 | 69 | 180 | 0.0 | 0.0 | 0.00 | 0.00 | 0.00 | 59 | 1069.0 |
| 20260906153132 | 69 | 157 | 0.0 | 0.0 | 0.00 | 0.00 | 0.00 | 60 | 1069.0 |
| 20260906153011 | 69 | 157 | 4.0 | 0.0 | 0.00 | 0.00 | 0.00 | 59 | 1069.0 |
| 20260906152850 | 69 | 180 | 0.0 | 0.0 | 0.00 | 0.00 | 0.00 | 59 | 1069.1 |
| 20260906152739 | 69 | 157 | 0.0 | 0.0 | 0.00 | 0.00 | 0.00 | 59 | 1069.1 |
| 20260906152626 | 69 | 157 | 0.0 | 0.0 | 0.00 | 0.00 | 0.00 | 59 | 1069.1 |
| 20260906152519 | 69 | 157 | 0.0 | 0.0 | 0.00 | 0.00 | 0.00 | 58 | 1069.2 |
| 20260906152350 | 69 | 157 | 0.0 | 0.0 | 0.00 | 0.00 | 0.00 | 58 | 1069.3 |
| 20260906152237 | 69 | 157 | 0.0 | 0.0 | 0.00 | 0.00 | 0.00 | 58 | 1069.1 |
| 20260906152122 | 69 | 157 | 0.0 | 0.0 | 0.00 | 0.00 | 0.00 | 58 | 1069.1 |
| 20260906152011 | 69 | 157 | 0.0 | 0.0 | 0.00 | 0.00 | 0.00 | 58 | 1069.2 |
| 20260906151851 | 69 | 180 | 0.0 | 0.0 | 0.00 | 0.00 | 0.00 | 58 | 1069.0 |
| 20260906151736 | 69 | 157 | 0.0 | 0.0 | 0.00 | 0.00 | 0.00 | 58 | 1069.0 |
| 20260906151621 | 69 | 135 | 2.0 | 0.0 | 0.00 | 0.00 | 0.00 | 58 | 1069.1 |
| 20260906151450 | 69 | 202 | 0.0 | 0.0 | 0.00 | 0.00 | 0.00 | 57 | 1069.1 |
| 20260906151336 | 69 | 202 | 3.0 | 0.0 | 0.00 | 0.00 | 0.00 | 57 | 1069.0 |
| 20260906151209 | 69 | 180 | 5.0 | 0.0 | 0.00 | 0.00 | 0.00 | 58 | 1069.0 |
| 20260906151102 | 70 | 157 | 0.0 | 0.0 | 0.00 | 0.00 | 0.00 | 58 | 1069.1 |
| 20260906150949 | 70 | 202 | 0.0 | 0.0 | 0.00 | 0.00 | 0.00 | 58 | 1069.1 |
| 20260906150820 | 70 | 157 | 0.0 | 0.0 | 0.00 | 0.00 | 0.00 | 58 | 1069.2 |
| 20260906150706 | 70 | 157 | 0.0 | 0.0 | 0.00 | 0.00 | 0.00 | 58 | 1069.2 |
| 20260906150546 | 70 | 157 | 0.0 | 0.0 | 0.00 | 0.00 | 0.00 | 58 | 1069.2 |
| 20260906150433 | 70 | 180 | 6.0 | 0.0 | 0.00 | 0.00 | 0.00 | 57 | 1069.3 |
| 20260906150320 | 70 | 180 | 0.0 | 0.0 | 0.00 | 0.00 | 0.00 | 57 | 1069.3 |
| 20260906150157 | 70 | 180 | 0.0 | 0.0 | 0.00 | 0.00 | 0.00 | 57 | 1069.3 |
| 20260906150044 | 70 | 180 | 0.0 | 0.0 | 0.00 | 0.00 | 0.00 | 57 | 1069.4 |
| 20260906145930 | 70 | 157 | 0.0 | 0.0 | 0.00 | 0.00 | 0.00 | 56 | 1069.4 |
| 20260906145801 | 70 | 180 | 0.0 | 0.0 | 0.00 | 0.00 | 0.00 | 56 | 1069.3 |
| 20260906145650 | 70 | 157 | 0.0 | 0.0 | 0.00 | 0.00 | 0.00 | 56 | 1069.4 |
| 20260906145543 | 70 | 180 | 0.0 | 0.0 | 0.00 | 0.00 | 0.00 | 56 | 1069.4 |
| 20260906145421 | 70 | 157 | 0.0 | 0.0 | 0.00 | 0.00 | 0.00 | 57 | 1069.4 |
| 20260906145300 | 71 | 157 | 0.0 | 0.0 | 0.00 | 0.00 | 0.00 | 57 | 1069.3 |
| 20260906145148 | 71 | 157 | 0.0 | 0.0 | 0.00 | 0.00 | 0.00 | 57 | 1069.4 |
| 20260906145026 | 70 | 180 | 0.0 | 0.0 | 0.00 | 0.00 | 0.00 | 57 | 1069.4 |
| 20260906144913 | 70 | 180 | 0.0 | 0.0 | 0.00 | 0.00 | 0.00 | 57 | 1069.4 |
| 20260906144754 | 70 | 180 | 0.0 | 0.0 | 0.00 | 0.00 | 0.00 | 57 | 1069.4 |
| 20260906144649 | 70 | 180 | 0.0 | 0.0 | 0.00 | 0.00 | 0.00 | 57 | 1069.4 |
| 20260906144542 | 70 | 202 | 0.0 | 0.0 | 0.00 | 0.00 | 0.00 | 57 | 1069.3 |
| 20260906144429 | 70 | 202 | 0.0 | 0.0 | 0.00 | 0.00 | 0.00 | 57 | 1069.4 |
| 20260906144315 | 70 | 157 | 4.0 | 0.0 | 0.00 | 0.00 | 0.00 | 58 | 1069.5 |
| 20260906144138 | 70 | 157 | 0.0 | 0.0 | 0.00 | 0.00 | 0.00 | 58 | 1069.5 |
| 20260906144025 | 70 | 180 | 0.0 | 0.0 | 0.00 | 0.00 | 0.00 | 58 | 1069.5 |
| 20260906143921 | 70 | 180 | 0.0 | 0.0 | 0.00 | 0.00 | 0.00 | 57 | 1069.4 |
| 20260906143808 | 70 | 180 | 0.0 | 0.0 | 0.00 | 0.00 | 0.00 | 57 | 1069.3 |
| 20260906143652 | 70 | 180 | 0.0 | 0.0 | 0.00 | 0.00 | 0.00 | 57 | 1069.4 |
| 20260906143538 | 70 | 180 | 0.0 | 0.0 | 0.00 | 0.00 | 0.00 | 57 | 1069.4 |
| 20260906143409 | 70 | 180 | 0.0 | 0.0 | 0.00 | 0.00 | 0.00 | 57 | 1069.5 |
| 20260906143256 | 70 | 180 | 0.0 | 0.0 | 0.00 | 0.00 | 0.00 | 57 | 1069.5 |
| 20260906143150 | 70 | 180 | 3.0 | 0.0 | 0.00 | 0.00 | 0.00 | 57 | 1069.5 |
| 20260906143045 | 70 | 180 | 5.0 | 0.0 | 0.00 | 0.00 | 0.00 | 56 | 1069.5 |
| 20260906142933 | 70 | 225 | 0.0 | 0.0 | 0.00 | 0.00 | 0.00 | 56 | 1069.5 |
| 20260906142827 | 70 | 180 | 0.0 | 0.0 | 0.00 | 0.00 | 0.00 | 56 | 1069.5 |
| 20260906142715 | 70 | 202 | 0.0 | 0.0 | 0.00 | 0.00 | 0.00 | 56 | 1069.5 |
| 20260906142608 | 70 | 157 | 6.0 | 0.0 | 0.00 | 0.00 | 0.00 | 55 | 1069.5 |
| 20260906142447 | 71 | 202 | 5.0 | 0.0 | 0.00 | 0.00 | 0.00 | 55 | 1069.5 |
| 20260906142321 | 71 | 202 | 8.0 | 0.0 | 0.00 | 0.00 | 0.00 | 55 | 1069.5 |
| 20260906142213 | 71 | 202 | 9.0 | 0.0 | 0.00 | 0.00 | 0.00 | 55 | 1069.5 |
| 20260906142052 | 71 | 180 | 2.0 | 0.0 | 0.00 | 0.00 | 0.00 | 55 | 1069.5 |
| 20260906141930 | 71 | 180 | 2.0 | 0.0 | 0.00 | 0.00 | 0.00 | 54 | 1069.6 |
| 20260906141818 | 71 | 157 | 0.0 | 0.0 | 0.00 | 0.00 | 0.00 | 53 | 1069.6 |
| 20260906141705 | 72 | 180 | 0.0 | 0.0 | 0.00 | 0.00 | 0.00 | 53 | 1069.5 |
| 20260906141543 | 72 | 157 | 0.0 | 0.0 | 0.00 | 0.00 | 0.00 | 54 | 1069.6 |
| 20260906141430 | 72 | 180 | 0.0 | 0.0 | 0.00 | 0.00 | 0.00 | 54 | 1069.6 |
| 20260906141318 | 72 | 157 | 0.0 | 0.0 | 0.00 | 0.00 | 0.00 | 54 | 1069.6 |
| 20260906141212 | 72 | 225 | 0.0 | 0.0 | 0.00 | 0.00 | 0.00 | 54 | 1069.7 |
| 20260906141050 | 72 | 180 | 0.0 | 0.0 | 0.00 | 0.00 | 0.00 | 55 | 1069.7 |
| 20260906140923 | 72 | 157 | 0.0 | 0.0 | 0.00 | 0.00 | 0.00 | 55 | 1069.7 |
| 20260906140817 | 72 | 180 | 0.0 | 0.0 | 0.00 | 0.00 | 0.00 | 55 | 1069.7 |
| 20260906140703 | 72 | 202 | 0.0 | 0.0 | 0.00 | 0.00 | 0.00 | 54 | 1069.7 |
| 20260906140534 | 72 | 180 | 0.0 | 0.0 | 0.00 | 0.00 | 0.00 | 55 | 1069.7 |
| 20260906140413 | 72 | 180 | 0.0 | 0.0 | 0.00 | 0.00 | 0.00 | 55 | 1069.6 |
| 20260906140307 | 72 | 157 | 6.0 | 0.0 | 0.00 | 0.00 | 0.00 | 55 | 1069.6 |
| 20260906140148 | 72 | 180 | 6.0 | 0.0 | 0.00 | 0.00 | 0.00 | 54 | 1069.7 |
| 20260906140036 | 72 | 270 | 0.0 | 0.0 | 0.00 | 0.00 | 0.00 | 54 | 1069.7 |
| 20260906135930 | 71 | 225 | 2.0 | 0.0 | 0.00 | 0.00 | 0.00 | 54 | 1069.7 |
| 20260906135825 | 71 | 202 | 4.0 | 0.0 | 0.00 | 0.00 | 0.00 | 54 | 1069.7 |
| 20260906135718 | 71 | 202 | 0.0 | 0.0 | 0.00 | 0.00 | 0.00 | 54 | 1069.7 |
| 20260906135605 | 71 | 225 | 0.0 | 0.0 | 0.00 | 0.00 | 0.00 | 54 | 1069.7 |
| 20260906135452 | 71 | 225 | 11.0 | 0.0 | 0.00 | 0.00 | 0.00 | 55 | 1069.8 |
| 20260906135339 | 71 | 180 | 0.0 | 0.0 | 0.00 | 0.00 | 0.00 | 54 | 1069.8 |
| 20260906135217 | 71 | 180 | 0.0 | 0.0 | 0.00 | 0.00 | 0.00 | 54 | 1069.8 |
| 20260906135104 | 71 | 180 | 8.0 | 0.0 | 0.00 | 0.00 | 0.00 | 53 | 1069.7 |
| 20260906134937 | 72 | 157 | 0.0 | 0.0 | 0.00 | 0.00 | 0.00 | 53 | 1069.7 |
| 20260906134822 | 72 | 157 | 3.0 | 0.0 | 0.00 | 0.00 | 0.00 | 53 | 1069.7 |
| 20260906134654 | 72 | 157 | 6.0 | 0.0 | 0.00 | 0.00 | 0.00 | 53 | 1069.7 |
| 20260906134549 | 72 | 157 | 8.0 | 0.0 | 0.00 | 0.00 | 0.00 | 53 | 1069.8 |
| 20260906134444 | 72 | 157 | 0.0 | 0.0 | 0.00 | 0.00 | 0.00 | 53 | 1069.8 |
| 20260906134333 | 72 | 202 | 3.0 | 0.0 | 0.00 | 0.00 | 0.00 | 53 | 1069.7 |
| 20260906134226 | 71 | 180 | 0.0 | 0.0 | 0.00 | 0.00 | 0.00 | 53 | 1069.7 |
| 20260906134113 | 71 | 225 | 6.0 | 0.0 | 0.00 | 0.00 | 0.00 | 54 | 1069.8 |
| 20260906133952 | 71 | 180 | 0.0 | 0.0 | 0.00 | 0.00 | 0.00 | 54 | 1069.8 |
| 20260906133842 | 71 | 180 | 3.0 | 0.0 | 0.00 | 0.00 | 0.00 | 54 | 1069.8 |
| 20260906133737 | 71 | 135 | 3.0 | 0.0 | 0.00 | 0.00 | 0.00 | 54 | 1069.7 |
| 20260906133630 | 71 | 202 | 0.0 | 0.0 | 0.00 | 0.00 | 0.00 | 54 | 1069.7 |
| 20260906133510 | 71 | 225 | 4.0 | 0.0 | 0.00 | 0.00 | 0.00 | 54 | 1069.7 |
| 20260906133348 | 71 | 180 | 0.0 | 0.0 | 0.00 | 0.00 | 0.00 | 54 | 1069.7 |
| 20260906133228 | 71 | 157 | 0.0 | 0.0 | 0.00 | 0.00 | 0.00 | 54 | 1069.7 |
| 20260906133051 | 71 | 157 | 5.0 | 0.0 | 0.00 | 0.00 | 0.00 | 54 | 1069.7 |
| 20260906132921 | 71 | 157 | 0.0 | 0.0 | 0.00 | 0.00 | 0.00 | 54 | 1069.7 |
| 20260906132747 | 71 | 180 | 4.0 | 0.0 | 0.00 | 0.00 | 0.00 | 54 | 1069.7 |
| 20260906132630 | 71 | 180 | 0.0 | 0.0 | 0.00 | 0.00 | 0.00 | 54 | 1069.8 |
| 20260906132517 | 71 | 180 | 0.0 | 0.0 | 0.00 | 0.00 | 0.00 | 53 | 1069.7 |
| 20260906132406 | 71 | 180 | 4.0 | 0.0 | 0.00 | 0.00 | 0.00 | 53 | 1069.7 |
| 20260906132301 | 71 | 157 | 0.0 | 0.0 | 0.00 | 0.00 | 0.00 | 53 | 1069.7 |
| 20260906132155 | 71 | 202 | 0.0 | 0.0 | 0.00 | 0.00 | 0.00 | 53 | 1069.8 |
| 20260906132044 | 71 | 202 | 4.0 | 0.0 | 0.00 | 0.00 | 0.00 | 52 | 1069.8 |
| 20260906131930 | 72 | 157 | 6.0 | 0.0 | 0.00 | 0.00 | 0.00 | 52 | 1069.8 |
| 20260906131816 | 72 | 157 | 4.0 | 0.0 | 0.00 | 0.00 | 0.00 | 53 | 1069.8 |
| 20260906131704 | 72 | 202 | 0.0 | 0.0 | 0.00 | 0.00 | 0.00 | 53 | 1069.8 |
| 20260906131551 | 72 | 157 | 0.0 | 0.0 | 0.00 | 0.00 | 0.00 | 53 | 1069.8 |
| 20260906131437 | 72 | 157 | 5.0 | 0.0 | 0.00 | 0.00 | 0.00 | 53 | 1069.7 |
| 20260906131318 | 71 | 157 | 6.0 | 0.0 | 0.00 | 0.00 | 0.00 | 54 | 1069.8 |
| 20260906131212 | 71 | 157 | 2.0 | 0.0 | 0.00 | 0.00 | 0.00 | 54 | 1069.8 |
| 20260906131050 | 71 | 180 | 0.0 | 0.0 | 0.00 | 0.00 | 0.00 | 53 | 1069.8 |
| 20260906130933 | 71 | 157 | 0.0 | 0.0 | 0.00 | 0.00 | 0.00 | 53 | 1069.8 |
| 20260906130820 | 71 | 157 | 0.0 | 0.0 | 0.00 | 0.00 | 0.00 | 52 | 1069.8 |
| 20260906130717 | 71 | 157 | 0.0 | 0.0 | 0.00 | 0.00 | 0.00 | 52 | 1069.8 |
| 20260906130604 | 72 | 202 | 4.0 | 0.0 | 0.00 | 0.00 | 0.00 | 52 | 1069.8 |
| 20260906130449 | 72 | 180 | 8.0 | 0.0 | 0.00 | 0.00 | 0.00 | 52 | 1069.8 |
| 20260906130344 | 72 | 202 | 6.0 | 0.0 | 0.00 | 0.00 | 0.00 | 52 | 1069.8 |
| 20260906130232 | 73 | 180 | 2.0 | 0.0 | 0.00 | 0.00 | 0.00 | 51 | 1069.9 |
| 20260906130119 | 73 | 247 | 1.0 | 0.0 | 0.00 | 0.00 | 0.00 | 51 | 1069.9 |
| 20260906130016 | 73 | 202 | 6.0 | 0.0 | 0.00 | 0.00 | 0.00 | 50 | 1069.8 |
| 20260906125908 | 73 | 180 | 0.0 | 0.0 | 0.00 | 0.00 | 0.00 | 50 | 1069.8 |
| 20260906125755 | 74 | 202 | 0.0 | 0.0 | 0.00 | 0.00 | 0.00 | 49 | 1069.8 |
| 20260906125634 | 74 | 180 | 5.0 | 0.0 | 0.00 | 0.00 | 0.00 | 49 | 1069.9 |
| 20260906125521 | 74 | 225 | 0.0 | 0.0 | 0.00 | 0.00 | 0.00 | 50 | 1069.8 |
| 20260906125407 | 74 | 270 | 0.0 | 0.0 | 0.00 | 0.00 | 0.00 | 49 | 1069.8 |
| 20260906125254 | 74 | 270 | 0.0 | 0.0 | 0.00 | 0.00 | 0.00 | 49 | 1069.8 |
| 20260906125134 | 74 | 180 | 0.0 | 0.0 | 0.00 | 0.00 | 0.00 | 48 | 1069.9 |
| 20260906125022 | 74 | 292 | 5.0 | 0.0 | 0.00 | 0.00 | 0.00 | 48 | 1069.8 |
| 20260906124917 | 74 | 270 | 0.0 | 0.0 | 0.00 | 0.00 | 0.00 | 48 | 1069.9 |
| 20260906124810 | 75 | 202 | 0.0 | 0.0 | 0.00 | 0.00 | 0.00 | 47 | 1069.8 |
| 20260906124656 | 75 | 180 | 0.0 | 0.0 | 0.00 | 0.00 | 0.00 | 47 | 1069.9 |
| 20260906124543 | 75 | 202 | 4.0 | 0.0 | 0.00 | 0.00 | 0.00 | 47 | 1069.9 |
| 20260906124423 | 75 | 180 | 0.0 | 0.0 | 0.00 | 0.00 | 0.00 | 47 | 1069.9 |
| 20260906124301 | 75 | 225 | 0.0 | 0.0 | 0.00 | 0.00 | 0.00 | 47 | 1069.8 |
| 20260906124140 | 76 | 247 | 0.0 | 0.0 | 0.00 | 0.00 | 0.00 | 46 | 1069.9 |
| 20260906124027 | 76 | 270 | 0.0 | 0.0 | 0.00 | 0.00 | 0.00 | 45 | 1069.9 |
| 20260906123923 | 77 | 225 | 4.0 | 0.0 | 0.00 | 0.00 | 0.00 | 46 | 1069.9 |
| 20260906123818 | 77 | 157 | 5.0 | 0.0 | 0.00 | 0.00 | 0.00 | 46 | 1070.0 |
| 20260906123656 | 77 | 157 | 5.0 | 0.0 | 0.00 | 0.00 | 0.00 | 48 | 1069.9 |
| 20260906123535 | 76 | 247 | 0.0 | 0.0 | 0.00 | 0.00 | 0.00 | 48 | 1069.9 |
| 20260906123417 | 76 | 270 | 0.0 | 0.0 | 0.00 | 0.00 | 0.00 | 48 | 1069.9 |
| 20260906123309 | 76 | 270 | 0.0 | 0.0 | 0.00 | 0.00 | 0.00 | 47 | 1069.9 |
| 20260906123156 | 76 | 225 | 0.0 | 0.0 | 0.00 | 0.00 | 0.00 | 47 | 1070.0 |
| 20260906123044 | 76 | 247 | 0.0 | 0.0 | 0.00 | 0.00 | 0.00 | 47 | 1069.9 |
| 20260906122913 | 76 | 270 | 0.0 | 0.0 | 0.00 | 0.00 | 0.00 | 48 | 1070.0 |
| 20260906122801 | 76 | 270 | 6.0 | 0.0 | 0.00 | 0.00 | 0.00 | 47 | 1070.1 |
| 20260906122655 | 76 | 202 | 0.0 | 0.0 | 0.00 | 0.00 | 0.00 | 47 | 1070.1 |
| 20260906122544 | 76 | 247 | 5.0 | 0.0 | 0.00 | 0.00 | 0.00 | 47 | 1070.1 |
| 20260906122437 | 76 | 247 | 4.0 | 0.0 | 0.00 | 0.00 | 0.00 | 47 | 1070.1 |
| 20260906122316 | 76 | 180 | 0.0 | 0.0 | 0.00 | 0.00 | 0.00 | 47 | 1070.1 |
| 20260906122146 | 76 | 202 | 4.0 | 0.0 | 0.00 | 0.00 | 0.00 | 46 | 1070.2 |
| 20260906122033 | 76 | 157 | 9.0 | 0.0 | 0.00 | 0.00 | 0.00 | 46 | 1070.1 |
| 20260906121920 | 77 | 157 | 10.0 | 0.0 | 0.00 | 0.00 | 0.00 | 47 | 1070.2 |
| 20260906121801 | 77 | 180 | 2.0 | 0.0 | 0.00 | 0.00 | 0.00 | 48 | 1070.1 |
| 20260906121646 | 76 | 202 | 0.0 | 0.0 | 0.00 | 0.00 | 0.00 | 50 | 1070.1 |
| 20260906121533 | 75 | 180 | 0.0 | 0.0 | 0.00 | 0.00 | 0.00 | 50 | 1070.1 |
| 20260906121429 | 75 | 225 | 0.0 | 0.0 | 0.00 | 0.00 | 0.00 | 50 | 1070.1 |
| 20260906121322 | 75 | 202 | 0.0 | 0.0 | 0.00 | 0.00 | 0.00 | 49 | 1070.2 |
| 20260906121203 | 75 | 225 | 0.0 | 0.0 | 0.00 | 0.00 | 0.00 | 49 | 1070.2 |
| 20260906121051 | 75 | 292 | 0.0 | 0.0 | 0.00 | 0.00 | 0.00 | 49 | 1070.2 |
| 20260906120943 | 75 | 202 | 0.0 | 0.0 | 0.00 | 0.00 | 0.00 | 49 | 1070.4 |
| 20260906120824 | 75 | 247 | 4.0 | 0.0 | 0.00 | 0.00 | 0.00 | 49 | 1070.4 |
| 20260906120716 | 75 | 157 | 4.0 | 0.0 | 0.00 | 0.00 | 0.00 | 49 | 1070.4 |
| 20260906120603 | 75 | 225 | 4.0 | 0.0 | 0.00 | 0.00 | 0.00 | 48 | 1070.3 |
| 20260906120444 | 75 | 292 | 0.0 | 0.0 | 0.00 | 0.00 | 0.00 | 48 | 1070.3 |
| 20260906120338 | 75 | 157 | 0.0 | 0.0 | 0.00 | 0.00 | 0.00 | 47 | 1070.3 |
| 20260906120233 | 75 | 202 | 0.0 | 0.0 | 0.00 | 0.00 | 0.00 | 47 | 1070.2 |
| 20260906120119 | 75 | 157 | 0.0 | 0.0 | 0.00 | 0.00 | 0.00 | 48 | 1070.3 |
| 20260906120006 | 75 | 202 | 5.0 | 0.0 | 0.00 | 0.00 | 0.00 | 49 | 1070.4 |
| 20260906115845 | 75 | 202 | 10.0 | 0.0 | 0.00 | 0.00 | 0.00 | 51 | 1070.4 |
| 20260906115733 | 74 | 225 | 0.0 | 0.0 | 0.00 | 0.00 | 0.00 | 51 | 1070.3 |
| 20260906115607 | 74 | 225 | 4.0 | 0.0 | 0.00 | 0.00 | 0.00 | 52 | 1070.4 |
| 20260906115459 | 73 | 247 | 0.0 | 0.0 | 0.00 | 0.00 | 0.00 | 52 | 1070.4 |
| 20260906115348 | 73 | 270 | 0.0 | 0.0 | 0.00 | 0.00 | 0.00 | 52 | 1070.4 |
| 20260906115241 | 73 | 247 | 0.0 | 0.0 | 0.00 | 0.00 | 0.00 | 51 | 1070.5 |
| 20260906115122 | 73 | 247 | 0.0 | 0.0 | 0.00 | 0.00 | 0.00 | 50 | 1070.5 |
| 20260906115008 | 74 | 270 | 4.0 | 0.0 | 0.00 | 0.00 | 0.00 | 50 | 1070.4 |
| 20260906114847 | 74 | 247 | 6.0 | 0.0 | 0.00 | 0.00 | 0.00 | 49 | 1070.5 |
| 20260906114734 | 75 | 247 | 5.0 | 0.0 | 0.00 | 0.00 | 0.00 | 48 | 1070.5 |
| 20260906114621 | 75 | 270 | 0.0 | 0.0 | 0.00 | 0.00 | 0.00 | 48 | 1070.4 |
| 20260906114501 | 76 | 247 | 5.0 | 0.0 | 0.00 | 0.00 | 0.00 | 47 | 1070.5 |
| 20260906114355 | 77 | 270 | 0.0 | 0.0 | 0.00 | 0.00 | 0.00 | 47 | 1070.5 |
| 20260906114234 | 77 | 270 | 0.0 | 0.0 | 0.00 | 0.00 | 0.00 | 47 | 1070.6 |
| 20260906114129 | 77 | 270 | 0.0 | 0.0 | 0.00 | 0.00 | 0.00 | 47 | 1070.6 |
| 20260906114006 | 77 | 247 | 0.0 | 0.0 | 0.00 | 0.00 | 0.00 | 46 | 1070.5 |
| 20260906113846 | 77 | 202 | 0.0 | 0.0 | 0.00 | 0.00 | 0.00 | 47 | 1070.6 |
| 20260906113719 | 77 | 225 | 0.0 | 0.0 | 0.00 | 0.00 | 0.00 | 47 | 1070.6 |
| 20260906113613 | 77 | 292 | 0.0 | 0.0 | 0.00 | 0.00 | 0.00 | 47 | 1070.6 |
| 20260906113500 | 77 | 247 | 0.0 | 0.0 | 0.00 | 0.00 | 0.00 | 46 | 1070.5 |
| 20260906113354 | 77 | 247 | 0.0 | 0.0 | 0.00 | 0.00 | 0.00 | 46 | 1070.5 |
| 20260906113250 | 77 | 270 | 5.0 | 0.0 | 0.00 | 0.00 | 0.00 | 46 | 1070.5 |
| 20260906113143 | 77 | 292 | 7.0 | 0.0 | 0.00 | 0.00 | 0.00 | 46 | 1070.5 |
| 20260906113015 | 77 | 292 | 6.0 | 0.0 | 0.00 | 0.00 | 0.00 | 46 | 1070.5 |
| 20260906112903 | 77 | 247 | 0.0 | 0.0 | 0.00 | 0.00 | 0.00 | 46 | 1070.6 |
| 20260906112757 | 77 | 157 | 0.0 | 0.0 | 0.00 | 0.00 | 0.00 | 47 | 1070.5 |
| 20260906112645 | 77 | 270 | 0.0 | 0.0 | 0.00 | 0.00 | 0.00 | 46 | 1070.5 |
| 20260906112538 | 77 | 157 | 6.0 | 0.0 | 0.00 | 0.00 | 0.00 | 46 | 1070.5 |
| 20260906112428 | 77 | 247 | 3.0 | 0.0 | 0.00 | 0.00 | 0.00 | 46 | 1070.5 |
| 20260906112320 | 77 | 270 | 2.0 | 0.0 | 0.00 | 0.00 | 0.00 | 47 | 1070.5 |
| 20260906112208 | 76 | 157 | 0.0 | 0.0 | 0.00 | 0.00 | 0.00 | 46 | 1070.5 |
| 20260906111950 | 76 | 247 | 0.0 | 0.0 | 0.00 | 0.00 | 0.00 | 46 | 1070.5 |
| 20260906111840 | 77 | 247 | 0.0 | 0.0 | 0.00 | 0.00 | 0.00 | 45 | 1070.5 |
| 20260906111724 | 77 | 270 | 0.0 | 0.0 | 0.00 | 0.00 | 0.00 | 46 | 1070.5 |
| 20260906111610 | 77 | 270 | 3.0 | 0.0 | 0.00 | 0.00 | 0.00 | 46 | 1070.6 |
| 20260906111457 | 77 | 225 | 2.0 | 0.0 | 0.00 | 0.00 | 0.00 | 47 | 1070.5 |
| 20260906111352 | 76 | 225 | 3.0 | 0.0 | 0.00 | 0.00 | 0.00 | 48 | 1070.5 |
| 20260906111247 | 76 | 202 | 0.0 | 0.0 | 0.00 | 0.00 | 0.00 | 47 | 1070.5 |
| 20260906111134 | 76 | 202 | 4.0 | 0.0 | 0.00 | 0.00 | 0.00 | 47 | 1070.6 |
| 20260906111020 | 76 | 157 | 2.0 | 0.0 | 0.00 | 0.00 | 0.00 | 46 | 1070.6 |
| 20260906110908 | 76 | 202 | 4.0 | 0.0 | 0.00 | 0.00 | 0.00 | 46 | 1070.6 |
| 20260906110755 | 76 | 225 | 9.0 | 0.0 | 0.00 | 0.00 | 0.00 | 46 | 1070.6 |
| 20260906110649 | 77 | 247 | 9.0 | 0.0 | 0.00 | 0.00 | 0.00 | 45 | 1070.7 |
| 20260906110536 | 77 | 270 | 0.0 | 0.0 | 0.00 | 0.00 | 0.00 | 45 | 1070.7 |
| 20260906110423 | 77 | 202 | 8.0 | 0.0 | 0.00 | 0.00 | 0.00 | 45 | 1070.6 |
| 20260906110310 | 77 | 202 | 8.0 | 0.0 | 0.00 | 0.00 | 0.00 | 46 | 1070.6 |
| 20260906110158 | 77 | 157 | 4.0 | 0.0 | 0.00 | 0.00 | 0.00 | 45 | 1070.5 |
| 20260906110052 | 77 | 135 | 5.0 | 0.0 | 0.00 | 0.00 | 0.00 | 46 | 1070.6 |
| 20260906105938 | 77 | 225 | 5.0 | 0.0 | 0.00 | 0.00 | 0.00 | 47 | 1070.6 |
| 20260906105819 | 77 | 247 | 0.0 | 0.0 | 0.00 | 0.00 | 0.00 | 46 | 1070.7 |
| 20260906105653 | 77 | 225 | 0.0 | 0.0 | 0.00 | 0.00 | 0.00 | 46 | 1070.6 |
| 20260906105531 | 78 | 202 | 0.0 | 0.0 | 0.00 | 0.00 | 0.00 | 44 | 1070.6 |
| 20260906105418 | 78 | 225 | 5.0 | 0.0 | 0.00 | 0.00 | 0.00 | 44 | 1070.6 |
| 20260906105255 | 79 | 180 | 11.0 | 0.0 | 0.00 | 0.00 | 0.00 | 45 | 1070.6 |
| 20260906105142 | 79 | 225 | 0.0 | 0.0 | 0.00 | 0.00 | 0.00 | 45 | 1070.7 |
| 20260906105037 | 79 | 202 | 1.0 | 0.0 | 0.00 | 0.00 | 0.00 | 45 | 1070.6 |
| 20260906104931 | 79 | 247 | 10.0 | 0.0 | 0.00 | 0.00 | 0.00 | 46 | 1070.6 |
| 20260906104810 | 79 | 157 | 4.0 | 0.0 | 0.00 | 0.00 | 0.00 | 47 | 1070.8 |
| 20260906104650 | 79 | 270 | 0.0 | 0.0 | 0.00 | 0.00 | 0.00 | 47 | 1070.7 |
| 20260906104545 | 79 | 315 | 0.0 | 0.0 | 0.00 | 0.00 | 0.00 | 48 | 1070.8 |
| 20260906104440 | 79 | 157 | 0.0 | 0.0 | 0.00 | 0.00 | 0.00 | 47 | 1070.7 |
| 20260906104335 | 78 | 202 | 0.0 | 0.0 | 0.00 | 0.00 | 0.00 | 48 | 1070.8 |
| 20260906104230 | 78 | 247 | 6.0 | 0.0 | 0.00 | 0.00 | 0.00 | 48 | 1070.7 |
| 20260906104125 | 78 | 270 | 0.0 | 0.0 | 0.00 | 0.00 | 0.00 | 49 | 1070.8 |
| 20260906104013 | 78 | 270 | 0.0 | 0.0 | 0.00 | 0.00 | 0.00 | 49 | 1070.8 |
| 20260906103900 | 77 | 157 | 0.0 | 0.0 | 0.00 | 0.00 | 0.00 | 49 | 1070.8 |
| 20260906103745 | 77 | 270 | 0.0 | 0.0 | 0.00 | 0.00 | 0.00 | 49 | 1070.9 |
| 20260906103640 | 77 | 202 | 0.0 | 0.0 | 0.00 | 0.00 | 0.00 | 48 | 1070.9 |
| 20260906103526 | 77 | 270 | 0.0 | 0.0 | 0.00 | 0.00 | 0.00 | 48 | 1070.9 |
| 20260906103405 | 77 | 202 | 5.0 | 0.0 | 0.00 | 0.00 | 0.00 | 49 | 1070.9 |
| 20260906103244 | 77 | 202 | 5.0 | 0.0 | 0.00 | 0.00 | 0.00 | 49 | 1070.9 |
| 20260906103134 | 77 | 202 | 6.0 | 0.0 | 0.00 | 0.00 | 0.00 | 49 | 1070.8 |
| 20260906103020 | 76 | 270 | 0.0 | 0.0 | 0.00 | 0.00 | 0.00 | 49 | 1071.0 |
| 20260906102913 | 76 | 270 | 3.0 | 0.0 | 0.00 | 0.00 | 0.00 | 50 | 1070.9 |
| 20260906102800 | 76 | 247 | 0.0 | 0.0 | 0.00 | 0.00 | 0.00 | 49 | 1070.9 |
| 20260906102647 | 76 | 247 | 0.0 | 0.0 | 0.00 | 0.00 | 0.00 | 49 | 1070.9 |
| 20260906102542 | 76 | 202 | 0.0 | 0.0 | 0.00 | 0.00 | 0.00 | 48 | 1070.9 |
| 20260906102421 | 76 | 202 | 6.0 | 0.0 | 0.00 | 0.00 | 0.00 | 48 | 1071.0 |
| 20260906102259 | 76 | 270 | 0.0 | 0.0 | 0.00 | 0.00 | 0.00 | 49 | 1070.9 |
| 20260906102138 | 76 | 225 | 0.0 | 0.0 | 0.00 | 0.00 | 0.00 | 49 | 1070.9 |
| 20260906102017 | 76 | 247 | 0.0 | 0.0 | 0.00 | 0.00 | 0.00 | 49 | 1070.9 |
| 20260906101912 | 76 | 247 | 0.0 | 0.0 | 0.00 | 0.00 | 0.00 | 49 | 1070.9 |
| 20260906101807 | 76 | 202 | 7.0 | 0.0 | 0.00 | 0.00 | 0.00 | 48 | 1070.9 |
| 20260906101654 | 76 | 225 | 0.0 | 0.0 | 0.00 | 0.00 | 0.00 | 47 | 1070.9 |
| 20260906101533 | 76 | 157 | 7.0 | 0.0 | 0.00 | 0.00 | 0.00 | 47 | 1070.9 |
| 20260906101428 | 76 | 225 | 0.0 | 0.0 | 0.00 | 0.00 | 0.00 | 48 | 1071.0 |
| 20260906101315 | 76 | 247 | 0.0 | 0.0 | 0.00 | 0.00 | 0.00 | 48 | 1071.0 |
| 20260906101210 | 76 | 270 | 0.0 | 0.0 | 0.00 | 0.00 | 0.00 | 48 | 1070.9 |
| 20260906101105 | 77 | 270 | 2.0 | 0.0 | 0.00 | 0.00 | 0.00 | 47 | 1071.0 |
| 20260906100959 | 77 | 247 | 9.0 | 0.0 | 0.00 | 0.00 | 0.00 | 48 | 1070.9 |
| 20260906100846 | 77 | 292 | 0.0 | 0.0 | 0.00 | 0.00 | 0.00 | 48 | 1070.9 |
| 20260906100725 | 77 | 292 | 10.0 | 0.0 | 0.00 | 0.00 | 0.00 | 47 | 1071.0 |
| 20260906100612 | 77 | 270 | 0.0 | 0.0 | 0.00 | 0.00 | 0.00 | 46 | 1071.0 |
| 20260906100507 | 77 | 270 | 4.0 | 0.0 | 0.00 | 0.00 | 0.00 | 47 | 1071.0 |
| 20260906100354 | 77 | 225 | 4.0 | 0.0 | 0.00 | 0.00 | 0.00 | 47 | 1071.0 |
| 20260906100233 | 77 | 180 | 8.0 | 0.0 | 0.00 | 0.00 | 0.00 | 47 | 1071.0 |
| 20260906100128 | 77 | 225 | 3.0 | 0.0 | 0.00 | 0.00 | 0.00 | 48 | 1071.0 |
| 20260906100006 | 77 | 202 | 0.0 | 0.0 | 0.00 | 0.00 | 0.00 | 49 | 1071.0 |
| 20260906095844 | 77 | 157 | 0.0 | 0.0 | 0.00 | 0.00 | 0.00 | 50 | 1071.0 |
| 20260906095731 | 77 | 202 | 0.0 | 0.0 | 0.00 | 0.00 | 0.00 | 50 | 1070.9 |
| 20260906095610 | 77 | 247 | 3.0 | 0.0 | 0.00 | 0.00 | 0.00 | 50 | 1071.0 |
| 20260906095450 | 77 | 270 | 0.0 | 0.0 | 0.00 | 0.00 | 0.00 | 49 | 1070.9 |
| 20260906095344 | 76 | 247 | 7.0 | 0.0 | 0.00 | 0.00 | 0.00 | 49 | 1070.9 |
| 20260906095231 | 76 | 247 | 2.0 | 0.0 | 0.00 | 0.00 | 0.00 | 49 | 1070.9 |
| 20260906095110 | 76 | 247 | 4.0 | 0.0 | 0.00 | 0.00 | 0.00 | 48 | 1070.9 |
| 20260906094957 | 76 | 247 | 6.0 | 0.0 | 0.00 | 0.00 | 0.00 | 48 | 1071.0 |
| 20260906094845 | 77 | 270 | 7.0 | 0.0 | 0.00 | 0.00 | 0.00 | 47 | 1070.9 |
| 20260906094731 | 77 | 292 | 8.0 | 0.0 | 0.00 | 0.00 | 0.00 | 48 | 1070.9 |
| 20260906094627 | 77 | 247 | 8.0 | 0.0 | 0.00 | 0.00 | 0.00 | 49 | 1071.0 |
| 20260906094520 | 76 | 292 | 2.0 | 0.0 | 0.00 | 0.00 | 0.00 | 50 | 1071.1 |
| 20260906094400 | 76 | 247 | 5.0 | 0.0 | 0.00 | 0.00 | 0.00 | 50 | 1070.9 |
| 20260906094255 | 76 | 270 | 4.0 | 0.0 | 0.00 | 0.00 | 0.00 | 50 | 1071.0 |
| 20260906094149 | 76 | 270 | 2.0 | 0.0 | 0.00 | 0.00 | 0.00 | 49 | 1070.9 |
| 20260906094029 | 76 | 225 | 7.0 | 0.0 | 0.00 | 0.00 | 0.00 | 50 | 1071.1 |
| 20260906093915 | 76 | 225 | 6.0 | 0.0 | 0.00 | 0.00 | 0.00 | 51 | 1071.0 |
| 20260906093753 | 75 | 247 | 2.0 | 0.0 | 0.00 | 0.00 | 0.00 | 52 | 1071.0 |
| 20260906093633 | 75 | 270 | 2.0 | 0.0 | 0.00 | 0.00 | 0.00 | 53 | 1071.0 |
| 20260906093520 | 75 | 247 | 6.0 | 0.0 | 0.00 | 0.00 | 0.00 | 54 | 1071.1 |
| 20260906093415 | 74 | 247 | 5.0 | 0.0 | 0.00 | 0.00 | 0.00 | 54 | 1071.0 |
| 20260906093302 | 74 | 292 | 8.0 | 0.0 | 0.00 | 0.00 | 0.00 | 54 | 1071.1 |
| 20260906093148 | 73 | 270 | 6.0 | 0.0 | 0.00 | 0.00 | 0.00 | 56 | 1071.1 |
| 20260906093027 | 73 | 247 | 2.0 | 0.0 | 0.00 | 0.00 | 0.00 | 56 | 1071.1 |
| 20260906092908 | 73 | 180 | 14.0 | 0.0 | 0.00 | 0.00 | 0.00 | 57 | 1071.1 |
| 20260906092802 | 72 | 225 | 2.0 | 0.0 | 0.00 | 0.00 | 0.00 | 58 | 1071.1 |
| 20260906092656 | 71 | 202 | 5.0 | 0.0 | 0.00 | 0.00 | 0.00 | 59 | 1071.0 |
| 20260906092535 | 70 | 270 | 5.0 | 0.0 | 0.00 | 0.00 | 0.00 | 60 | 1071.1 |
| 20260906092430 | 70 | 247 | 3.0 | 0.0 | 0.00 | 0.00 | 0.00 | 60 | 1071.1 |
| 20260906092317 | 69 | 270 | 2.0 | 0.0 | 0.00 | 0.00 | 0.00 | 60 | 1071.1 |
| 20260906092203 | 69 | 225 | 0.0 | 0.0 | 0.00 | 0.00 | 0.00 | 59 | 1071.1 |
| 20260906092053 | 69 | 270 | 2.0 | 0.0 | 0.00 | 0.00 | 0.00 | 59 | 1071.1 |
| 20260906091947 | 70 | 270 | 2.0 | 0.0 | 0.00 | 0.00 | 0.00 | 58 | 1071.2 |
| 20260906091841 | 70 | 292 | 5.0 | 0.0 | 0.00 | 0.00 | 0.00 | 58 | 1071.2 |
| 20260906091737 | 71 | 247 | 1.0 | 0.0 | 0.00 | 0.00 | 0.00 | 57 | 1071.3 |
| 20260906091616 | 71 | 270 | 6.0 | 0.0 | 0.00 | 0.00 | 0.00 | 56 | 1071.2 |
| 20260906091454 | 72 | 247 | 6.0 | 0.0 | 0.00 | 0.00 | 0.00 | 55 | 1071.2 |
| 20260906091317 | 72 | 270 | 5.0 | 0.0 | 0.00 | 0.00 | 0.00 | 55 | 1071.2 |
| 20260906091203 | 73 | 180 | 4.0 | 0.0 | 0.00 | 0.00 | 0.00 | 55 | 1071.2 |
| 20260906091049 | 73 | 247 | 4.0 | 0.0 | 0.00 | 0.00 | 0.00 | 55 | 1071.2 |
| 20260906090938 | 73 | 247 | 2.0 | 0.0 | 0.00 | 0.00 | 0.00 | 55 | 1071.2 |
| 20260906090830 | 73 | 247 | 4.0 | 0.0 | 0.00 | 0.00 | 0.00 | 55 | 1071.2 |
| 20260906090710 | 73 | 247 | 0.0 | 0.0 | 0.00 | 0.00 | 0.00 | 54 | 1071.2 |
| 20260906090550 | 73 | 247 | 3.0 | 0.0 | 0.00 | 0.00 | 0.00 | 54 | 1071.3 |
| 20260906090443 | 73 | 270 | 4.0 | 0.0 | 0.00 | 0.00 | 0.00 | 54 | 1071.2 |
| 20260906090322 | 73 | 270 | 0.0 | 0.0 | 0.00 | 0.00 | 0.00 | 54 | 1071.3 |
| 20260906090208 | 74 | 247 | 5.0 | 0.0 | 0.00 | 0.00 | 0.00 | 54 | 1071.2 |
| 20260906090056 | 74 | 270 | 2.0 | 0.0 | 0.00 | 0.00 | 0.00 | 53 | 1071.3 |
| 20260906085950 | 74 | 202 | 0.0 | 0.0 | 0.00 | 0.00 | 0.00 | 54 | 1071.3 |
| 20260906085829 | 74 | 270 | 6.0 | 0.0 | 0.00 | 0.00 | 0.00 | 54 | 1071.3 |
| 20260906085724 | 74 | 247 | 3.0 | 0.0 | 0.00 | 0.00 | 0.00 | 53 | 1071.2 |
| 20260906085555 | 74 | 270 | 6.0 | 0.0 | 0.00 | 0.00 | 0.00 | 51 | 1071.2 |
| 20260906085442 | 75 | 247 | 4.0 | 0.0 | 0.00 | 0.00 | 0.00 | 51 | 1071.2 |
| 20260906085337 | 75 | 247 | 6.0 | 0.0 | 0.00 | 0.00 | 0.00 | 50 | 1071.2 |
| 20260906085215 | 76 | 247 | 2.0 | 0.0 | 0.00 | 0.00 | 0.00 | 49 | 1071.2 |
| 20260906085055 | 77 | 225 | 5.0 | 0.0 | 0.00 | 0.00 | 0.00 | 50 | 1071.2 |
| 20260906084950 | 77 | 270 | 6.0 | 0.0 | 0.00 | 0.00 | 0.00 | 50 | 1071.3 |
| 20260906084844 | 77 | 270 | 3.0 | 0.0 | 0.00 | 0.00 | 0.00 | 48 | 1071.2 |
| 20260906084733 | 78 | 270 | 3.0 | 0.0 | 0.00 | 0.00 | 0.00 | 49 | 1071.2 |
| 20260906084619 | 78 | 270 | 0.0 | 0.0 | 0.00 | 0.00 | 0.00 | 48 | 1071.2 |
| 20260906084508 | 78 | 247 | 7.0 | 0.0 | 0.00 | 0.00 | 0.00 | 49 | 1071.2 |
| 20260906084402 | 78 | 292 | 0.0 | 0.0 | 0.00 | 0.00 | 0.00 | 49 | 1071.1 |
| 20260906084256 | 78 | 292 | 7.0 | 0.0 | 0.00 | 0.00 | 0.00 | 49 | 1071.2 |
| 20260906084150 | 78 | 270 | 6.0 | 0.0 | 0.00 | 0.00 | 0.00 | 47 | 1071.1 |
| 20260906084038 | 78 | 270 | 3.0 | 0.0 | 0.00 | 0.00 | 0.00 | 47 | 1071.1 |
| 20260906083932 | 78 | 292 | 7.0 | 0.0 | 0.00 | 0.00 | 0.00 | 49 | 1071.1 |
| 20260906083821 | 77 | 270 | 2.0 | 0.0 | 0.00 | 0.00 | 0.00 | 49 | 1071.1 |
| 20260906083705 | 77 | 202 | 5.0 | 0.0 | 0.00 | 0.00 | 0.00 | 49 | 1071.1 |
| 20260906083545 | 78 | 225 | 7.0 | 0.0 | 0.00 | 0.00 | 0.00 | 49 | 1071.1 |
| 20260906083440 | 77 | 225 | 4.0 | 0.0 | 0.00 | 0.00 | 0.00 | 49 | 1071.2 |
| 20260906083333 | 78 | 270 | 3.0 | 0.0 | 0.00 | 0.00 | 0.00 | 47 | 1071.1 |
| 20260906083220 | 78 | 247 | 8.0 | 0.0 | 0.00 | 0.00 | 0.00 | 48 | 1071.1 |
| 20260906083100 | 78 | 270 | 6.0 | 0.0 | 0.00 | 0.00 | 0.00 | 48 | 1071.1 |
| 20260906082947 | 78 | 247 | 5.0 | 0.0 | 0.00 | 0.00 | 0.00 | 49 | 1071.1 |
| 20260906082842 | 78 | 292 | 4.0 | 0.0 | 0.00 | 0.00 | 0.00 | 48 | 1071.0 |
| 20260906082729 | 78 | 247 | 6.0 | 0.0 | 0.00 | 0.00 | 0.00 | 48 | 1071.0 |
| 20260906082607 | 79 | 247 | 3.0 | 0.0 | 0.00 | 0.00 | 0.00 | 48 | 1071.1 |
| 20260906082454 | 79 | 270 | 4.0 | 0.0 | 0.00 | 0.00 | 0.00 | 48 | 1071.1 |
| 20260906082341 | 79 | 247 | 5.0 | 0.0 | 0.00 | 0.00 | 0.00 | 49 | 1071.1 |
| 20260906082228 | 79 | 270 | 0.0 | 0.0 | 0.00 | 0.00 | 0.00 | 48 | 1071.1 |
| 20260906082115 | 78 | 270 | 0.0 | 0.0 | 0.00 | 0.00 | 0.00 | 49 | 1071.1 |
| 20260906082010 | 78 | 270 | 3.0 | 0.0 | 0.00 | 0.00 | 0.00 | 49 | 1071.1 |
| 20260906081857 | 78 | 202 | 1.0 | 0.0 | 0.00 | 0.00 | 0.00 | 49 | 1071.1 |
| 20260906081751 | 78 | 270 | 2.0 | 0.0 | 0.00 | 0.00 | 0.00 | 49 | 1071.0 |
| 20260906081631 | 78 | 247 | 3.0 | 0.0 | 0.00 | 0.00 | 0.00 | 49 | 1071.0 |
| 20260906081518 | 78 | 270 | 5.0 | 0.0 | 0.00 | 0.00 | 0.00 | 49 | 1071.0 |
| 20260906081405 | 77 | 270 | 2.0 | 0.0 | 0.00 | 0.00 | 0.00 | 49 | 1071.0 |
| 20260906081300 | 78 | 247 | 5.0 | 0.0 | 0.00 | 0.00 | 0.00 | 48 | 1071.0 |
| 20260906081153 | 78 | 292 | 7.0 | 0.0 | 0.00 | 0.00 | 0.00 | 48 | 1071.0 |
| 20260906081041 | 78 | 247 | 3.0 | 0.0 | 0.00 | 0.00 | 0.00 | 48 | 1071.1 |
| 20260906080922 | 78 | 247 | 6.0 | 0.0 | 0.00 | 0.00 | 0.00 | 48 | 1071.0 |
| 20260906080815 | 79 | 247 | 6.0 | 0.0 | 0.00 | 0.00 | 0.00 | 48 | 1071.0 |
| 20260906080701 | 79 | 202 | 5.0 | 0.0 | 0.00 | 0.00 | 0.00 | 48 | 1071.0 |
| 20260906080540 | 79 | 247 | 5.0 | 0.0 | 0.00 | 0.00 | 0.00 | 49 | 1071.0 |
| 20260906080428 | 78 | 225 | 3.0 | 0.0 | 0.00 | 0.00 | 0.00 | 50 | 1071.0 |
| 20260906080323 | 78 | 247 | 1.0 | 0.0 | 0.00 | 0.00 | 0.00 | 50 | 1070.9 |
| 20260906080210 | 78 | 270 | 2.0 | 0.0 | 0.00 | 0.00 | 0.00 | 50 | 1070.9 |
| 20260906080058 | 78 | 270 | 2.0 | 0.0 | 0.00 | 0.00 | 0.00 | 50 | 1070.9 |
| 20260906075954 | 78 | 247 | 5.0 | 0.0 | 0.00 | 0.00 | 0.00 | 51 | 1070.9 |
| 20260906075846 | 78 | 247 | 3.0 | 0.0 | 0.00 | 0.00 | 0.00 | 51 | 1070.9 |
| 20260906075734 | 78 | 247 | 5.0 | 0.0 | 0.00 | 0.00 | 0.00 | 52 | 1070.9 |
| 20260906075621 | 77 | 180 | 0.0 | 0.0 | 0.00 | 0.00 | 0.00 | 52 | 1070.9 |
| 20260906075501 | 77 | 270 | 0.0 | 0.0 | 0.00 | 0.00 | 0.00 | 52 | 1070.9 |
| 20260906075340 | 77 | 247 | 2.0 | 0.0 | 0.00 | 0.00 | 0.00 | 52 | 1070.9 |
| 20260906075229 | 76 | 247 | 2.0 | 0.0 | 0.00 | 0.00 | 0.00 | 53 | 1070.9 |
| 20260906075117 | 76 | 270 | 6.0 | 0.0 | 0.00 | 0.00 | 0.00 | 54 | 1070.9 |
| 20260906075010 | 76 | 247 | 4.0 | 0.0 | 0.00 | 0.00 | 0.00 | 54 | 1070.9 |
| 20260906074857 | 76 | 247 | 2.0 | 0.0 | 0.00 | 0.00 | 0.00 | 53 | 1070.9 |
| 20260906074746 | 75 | 270 | 3.0 | 0.0 | 0.00 | 0.00 | 0.00 | 54 | 1070.9 |
| 20260906074640 | 75 | 225 | 4.0 | 0.0 | 0.00 | 0.00 | 0.00 | 54 | 1070.9 |
| 20260906074534 | 75 | 247 | 0.0 | 0.0 | 0.00 | 0.00 | 0.00 | 54 | 1070.8 |
| 20260906074421 | 75 | 270 | 2.0 | 0.0 | 0.00 | 0.00 | 0.00 | 54 | 1070.8 |
| 20260906074316 | 75 | 225 | 4.0 | 0.0 | 0.00 | 0.00 | 0.00 | 55 | 1070.8 |
| 20260906074211 | 75 | 247 | 4.0 | 0.0 | 0.00 | 0.00 | 0.00 | 56 | 1070.8 |
| 20260906074050 | 74 | 270 | 0.0 | 0.0 | 0.00 | 0.00 | 0.00 | 56 | 1070.8 |
| 20260906073937 | 74 | 225 | 2.0 | 0.0 | 0.00 | 0.00 | 0.00 | 56 | 1070.9 |
| 20260906073823 | 74 | 202 | 4.0 | 0.0 | 0.00 | 0.00 | 0.00 | 56 | 1070.8 |
| 20260906073710 | 74 | 225 | 3.0 | 0.0 | 0.00 | 0.00 | 0.00 | 56 | 1070.9 |
| 20260906073557 | 75 | 202 | 3.0 | 0.0 | 0.00 | 0.00 | 0.00 | 56 | 1070.8 |
| 20260906073444 | 75 | 180 | 4.0 | 0.0 | 0.00 | 0.00 | 0.00 | 56 | 1070.8 |
| 20260906073331 | 75 | 202 | 4.0 | 0.0 | 0.00 | 0.00 | 0.00 | 57 | 1070.7 |
| 20260906073202 | 75 | 157 | 3.0 | 0.0 | 0.00 | 0.00 | 0.00 | 57 | 1070.8 |
| 20260906073049 | 75 | 202 | 6.0 | 0.0 | 0.00 | 0.00 | 0.00 | 57 | 1070.7 |
| 20260906072943 | 74 | 180 | 0.0 | 0.0 | 0.00 | 0.00 | 0.00 | 57 | 1070.6 |
| 20260906072832 | 74 | 180 | 2.0 | 0.0 | 0.00 | 0.00 | 0.00 | 58 | 1070.6 |
| 20260906072719 | 74 | 180 | 0.0 | 0.0 | 0.00 | 0.00 | 0.00 | 58 | 1070.6 |
| 20260906072611 | 74 | 247 | 4.0 | 0.0 | 0.00 | 0.00 | 0.00 | 58 | 1070.6 |
| 20260906072459 | 73 | 180 | 0.0 | 0.0 | 0.00 | 0.00 | 0.00 | 59 | 1070.6 |
| 20260906072345 | 73 | 225 | 4.0 | 0.0 | 0.00 | 0.00 | 0.00 | 59 | 1070.7 |
| 20260906072225 | 73 | 180 | 2.0 | 0.0 | 0.00 | 0.00 | 0.00 | 60 | 1070.7 |
| 20260906072105 | 73 | 180 | 4.0 | 0.0 | 0.00 | 0.00 | 0.00 | 59 | 1070.7 |
| 20260906072000 | 73 | 202 | 4.0 | 0.0 | 0.00 | 0.00 | 0.00 | 59 | 1070.5 |
| 20260906071854 | 73 | 202 | 4.0 | 0.0 | 0.00 | 0.00 | 0.00 | 60 | 1070.5 |
| 20260906071742 | 73 | 202 | 2.0 | 0.0 | 0.00 | 0.00 | 0.00 | 61 | 1070.5 |
| 20260906071631 | 72 | 157 | 5.0 | 0.0 | 0.00 | 0.00 | 0.00 | 61 | 1070.6 |
| 20260906071525 | 72 | 225 | 0.0 | 0.0 | 0.00 | 0.00 | 0.00 | 62 | 1070.5 |
| 20260906071412 | 72 | 180 | 0.0 | 0.0 | 0.00 | 0.00 | 0.00 | 61 | 1070.5 |
| 20260906071242 | 71 | 157 | 2.0 | 0.0 | 0.00 | 0.00 | 0.00 | 62 | 1070.5 |
| 20260906071129 | 72 | 202 | 2.0 | 0.0 | 0.00 | 0.00 | 0.00 | 61 | 1070.5 |
| 20260906071016 | 72 | 202 | 3.0 | 0.0 | 0.00 | 0.00 | 0.00 | 62 | 1070.5 |
| 20260906070857 | 72 | 202 | 6.0 | 0.0 | 0.00 | 0.00 | 0.00 | 62 | 1070.5 |
| 20260906070752 | 71 | 202 | 1.0 | 0.0 | 0.00 | 0.00 | 0.00 | 63 | 1070.5 |
| 20260906070644 | 71 | 180 | 2.0 | 0.0 | 0.00 | 0.00 | 0.00 | 64 | 1070.5 |
| 20260906070531 | 71 | 202 | 5.0 | 0.0 | 0.00 | 0.00 | 0.00 | 64 | 1070.5 |
| 20260906070418 | 70 | 135 | 0.0 | 0.0 | 0.00 | 0.00 | 0.00 | 65 | 1070.6 |
| 20260906070258 | 70 | 225 | 4.0 | 0.0 | 0.00 | 0.00 | 0.00 | 65 | 1070.5 |
| 20260906070150 | 70 | 180 | 2.0 | 0.0 | 0.00 | 0.00 | 0.00 | 65 | 1070.5 |
| 20260906070015 | 69 | 202 | 4.0 | 0.0 | 0.00 | 0.00 | 0.00 | 65 | 1070.5 |
| 20260906065908 | 69 | 202 | 5.0 | 0.0 | 0.00 | 0.00 | 0.00 | 65 | 1070.5 |
| 20260906065748 | 69 | 180 | 3.0 | 0.0 | 0.00 | 0.00 | 0.00 | 66 | 1070.5 |
| 20260906065642 | 69 | 202 | 6.0 | 0.0 | 0.00 | 0.00 | 0.00 | 66 | 1070.4 |
| 20260906065513 | 69 | 202 | 0.0 | 0.0 | 0.00 | 0.00 | 0.00 | 67 | 1070.5 |
| 20260906065359 | 69 | 180 | 3.0 | 0.0 | 0.00 | 0.00 | 0.00 | 67 | 1070.5 |
| 20260906065230 | 68 | 202 | 2.0 | 0.0 | 0.00 | 0.00 | 0.00 | 67 | 1070.4 |
| 20260906065101 | 68 | 202 | 3.0 | 0.0 | 0.00 | 0.00 | 0.00 | 68 | 1070.4 |
| 20260906064940 | 68 | 180 | 3.0 | 0.0 | 0.00 | 0.00 | 0.00 | 69 | 1070.5 |
| 20260906064829 | 67 | 180 | 0.0 | 0.0 | 0.00 | 0.00 | 0.00 | 68 | 1070.5 |
| 20260906064722 | 67 | 202 | 4.0 | 0.0 | 0.00 | 0.00 | 0.00 | 69 | 1070.4 |
| 20260906064617 | 67 | 202 | 4.0 | 0.0 | 0.00 | 0.00 | 0.00 | 69 | 1070.5 |
| 20260906064455 | 67 | 225 | 5.0 | 0.0 | 0.00 | 0.00 | 0.00 | 69 | 1070.5 |
| 20260906064343 | 67 | 202 | 6.0 | 0.0 | 0.00 | 0.00 | 0.00 | 68 | 1070.5 |
| 20260906064215 | 67 | 225 | 3.0 | 0.0 | 0.00 | 0.00 | 0.00 | 69 | 1070.5 |
| 20260906064037 | 67 | 180 | 6.0 | 0.0 | 0.00 | 0.00 | 0.00 | 69 | 1070.4 |
| 20260906063900 | 67 | 202 | 3.0 | 0.0 | 0.00 | 0.00 | 0.00 | 68 | 1070.4 |
| 20260906063723 | 67 | 202 | 0.0 | 0.0 | 0.00 | 0.00 | 0.00 | 69 | 1070.4 |
| 20260906063616 | 67 | 202 | 3.0 | 0.0 | 0.00 | 0.00 | 0.00 | 68 | 1070.4 |
| 20260906063502 | 67 | 202 | 0.0 | 0.0 | 0.00 | 0.00 | 0.00 | 69 | 1070.4 |
| 20260906063341 | 67 | 180 | 6.0 | 0.0 | 0.00 | 0.00 | 0.00 | 69 | 1070.4 |
| 20260906063208 | 66 | 202 | 0.0 | 0.0 | 0.00 | 0.00 | 0.00 | 70 | 1070.4 |
| 20260906063046 | 66 | 180 | 0.0 | 0.0 | 0.00 | 0.00 | 0.00 | 70 | 1070.3 |
| 20260906062925 | 66 | 180 | 0.0 | 0.0 | 0.00 | 0.00 | 0.00 | 71 | 1070.5 |
| 20260906062811 | 66 | 180 | 0.0 | 0.0 | 0.00 | 0.00 | 0.00 | 72 | 1070.4 |
| 20260906062655 | 65 | 180 | 0.0 | 0.0 | 0.00 | 0.00 | 0.00 | 73 | 1070.4 |
| 20260906062542 | 65 | 180 | 0.0 | 0.0 | 0.00 | 0.00 | 0.00 | 73 | 1070.3 |
| 20260906062428 | 65 | 180 | 0.0 | 0.0 | 0.00 | 0.00 | 0.00 | 73 | 1070.4 |
| 20260906062313 | 64 | 180 | 0.0 | 0.0 | 0.00 | 0.00 | 0.00 | 74 | 1070.4 |
| 20260906062204 | 64 | 180 | 0.0 | 0.0 | 0.00 | 0.00 | 0.00 | 75 | 1070.4 |
| 20260906062057 | 63 | 157 | 2.0 | 0.0 | 0.00 | 0.00 | 0.00 | 75 | 1070.4 |
| 20260906061952 | 63 | 180 | 0.0 | 0.0 | 0.00 | 0.00 | 0.00 | 76 | 1070.4 |
| 20260906061831 | 62 | 180 | 0.0 | 0.0 | 0.00 | 0.00 | 0.00 | 76 | 1070.4 |
| 20260906061725 | 62 | 180 | 0.0 | 0.0 | 0.00 | 0.00 | 0.00 | 76 | 1070.4 |
| 20260906061614 | 62 | 180 | 4.0 | 0.0 | 0.00 | 0.00 | 0.00 | 77 | 1070.4 |
| 20260906061509 | 62 | 180 | 6.0 | 0.0 | 0.00 | 0.00 | 0.00 | 77 | 1070.4 |
| 20260906061404 | 61 | 225 | 5.0 | 0.0 | 0.00 | 0.00 | 0.00 | 77 | 1070.3 |
| 20260906061256 | 61 | 157 | 2.0 | 0.0 | 0.00 | 0.00 | 0.00 | 77 | 1070.3 |
| 20260906061145 | 61 | 180 | 6.0 | 0.0 | 0.00 | 0.00 | 0.00 | 78 | 1070.3 |
| 20260906061039 | 61 | 180 | 3.0 | 0.0 | 0.00 | 0.00 | 0.00 | 78 | 1070.3 |
| 20260906060934 | 61 | 157 | 1.0 | 0.0 | 0.00 | 0.00 | 0.00 | 78 | 1070.3 |
| 20260906060828 | 60 | 157 | 4.0 | 0.0 | 0.00 | 0.00 | 0.00 | 78 | 1070.3 |
| 20260906060723 | 60 | 180 | 5.0 | 0.0 | 0.00 | 0.00 | 0.00 | 78 | 1070.3 |
| 20260906060618 | 60 | 157 | 5.0 | 0.0 | 0.00 | 0.00 | 0.00 | 79 | 1070.2 |
| 20260906060447 | 60 | 180 | 3.0 | 0.0 | 0.00 | 0.00 | 0.00 | 79 | 1070.2 |
| 20260906060335 | 60 | 180 | 2.0 | 0.0 | 0.00 | 0.00 | 0.00 | 79 | 1070.3 |
| 20260906060228 | 60 | 157 | 4.0 | 0.0 | 0.00 | 0.00 | 0.00 | 79 | 1070.3 |
| 20260906060107 | 59 | 157 | 3.0 | 0.0 | 0.00 | 0.00 | 0.00 | 80 | 1070.3 |
| 20260906055944 | 59 | 157 | 3.0 | 0.0 | 0.00 | 0.00 | 0.00 | 80 | 1070.3 |
| 20260906055827 | 59 | 180 | 3.0 | 0.0 | 0.00 | 0.00 | 0.00 | 79 | 1070.3 |
| 20260906055721 | 59 | 157 | 5.0 | 0.0 | 0.00 | 0.00 | 0.00 | 80 | 1070.3 |
| 20260906055550 | 59 | 157 | 0.0 | 0.0 | 0.00 | 0.00 | 0.00 | 80 | 1070.3 |
| 20260906055437 | 58 | 180 | 0.0 | 0.0 | 0.00 | 0.00 | 0.00 | 80 | 1070.3 |
| 20260906055324 | 58 | 202 | 6.0 | 0.0 | 0.00 | 0.00 | 0.00 | 80 | 1070.3 |
| 20260906055202 | 58 | 180 | 4.0 | 0.0 | 0.00 | 0.00 | 0.00 | 80 | 1070.2 |
| 20260906055041 | 58 | 180 | 7.0 | 0.0 | 0.00 | 0.00 | 0.00 | 79 | 1070.2 |
| 20260906054920 | 58 | 157 | 6.0 | 0.0 | 0.00 | 0.00 | 0.00 | 79 | 1070.2 |
| 20260906054759 | 58 | 157 | 5.0 | 0.0 | 0.00 | 0.00 | 0.00 | 79 | 1070.2 |
| 20260906054645 | 58 | 157 | 0.0 | 0.0 | 0.00 | 0.00 | 0.00 | 79 | 1070.2 |
| 20260906054527 | 58 | 157 | 6.0 | 0.0 | 0.00 | 0.00 | 0.00 | 79 | 1070.2 |
| 20260906054420 | 58 | 157 | 4.0 | 0.0 | 0.00 | 0.00 | 0.00 | 79 | 1070.2 |
| 20260906054306 | 57 | 180 | 5.0 | 0.0 | 0.00 | 0.00 | 0.00 | 79 | 1070.2 |
| 20260906054154 | 57 | 180 | 3.0 | 0.0 | 0.00 | 0.00 | 0.00 | 79 | 1070.2 |
| 20260906054048 | 57 | 180 | 3.0 | 0.0 | 0.00 | 0.00 | 0.00 | 78 | 1070.2 |
| 20260906053943 | 57 | 180 | 5.0 | 0.0 | 0.00 | 0.00 | 0.00 | 78 | 1070.2 |
| 20260906053836 | 57 | 180 | 4.0 | 0.0 | 0.00 | 0.00 | 0.00 | 78 | 1070.2 |
| 20260906053721 | 57 | 157 | 0.0 | 0.0 | 0.00 | 0.00 | 0.00 | 78 | 1070.3 |
| 20260906053601 | 57 | 157 | 0.0 | 0.0 | 0.00 | 0.00 | 0.00 | 78 | 1070.3 |
| 20260906053439 | 57 | 180 | 0.0 | 0.0 | 0.00 | 0.00 | 0.00 | 78 | 1070.3 |
| 20260906053318 | 57 | 180 | 0.0 | 0.0 | 0.00 | 0.00 | 0.00 | 78 | 1070.3 |
| 20260906053205 | 57 | 180 | 0.0 | 0.0 | 0.00 | 0.00 | 0.00 | 78 | 1070.3 |
| 20260906053054 | 57 | 157 | 0.0 | 0.0 | 0.00 | 0.00 | 0.00 | 78 | 1070.3 |
| 20260906052941 | 57 | 157 | 0.0 | 0.0 | 0.00 | 0.00 | 0.00 | 78 | 1070.3 |
| 20260906052825 | 57 | 157 | 0.0 | 0.0 | 0.00 | 0.00 | 0.00 | 78 | 1070.3 |
| 20260906052647 | 57 | 157 | 0.0 | 0.0 | 0.00 | 0.00 | 0.00 | 78 | 1070.4 |
| 20260906052532 | 57 | 157 | 0.0 | 0.0 | 0.00 | 0.00 | 0.00 | 78 | 1070.3 |
| 20260906052402 | 57 | 157 | 0.0 | 0.0 | 0.00 | 0.00 | 0.00 | 78 | 1070.2 |
| 20260906052249 | 57 | 157 | 0.0 | 0.0 | 0.00 | 0.00 | 0.00 | 78 | 1070.2 |
| 20260906052134 | 57 | 180 | 0.0 | 0.0 | 0.00 | 0.00 | 0.00 | 78 | 1070.1 |
| 20260906052021 | 57 | 157 | 0.0 | 0.0 | 0.00 | 0.00 | 0.00 | 78 | 1070.2 |
| 20260906051908 | 57 | 157 | 2.0 | 0.0 | 0.00 | 0.00 | 0.00 | 79 | 1070.2 |
| 20260906051746 | 57 | 202 | 0.0 | 0.0 | 0.00 | 0.00 | 0.00 | 79 | 1070.2 |
| 20260906051627 | 57 | 337 | 0.0 | 0.0 | 0.00 | 0.00 | 0.00 | 79 | 1070.1 |
| 20260906051520 | 57 | 337 | 0.0 | 0.0 | 0.00 | 0.00 | 0.00 | 79 | 1070.1 |
| 20260906051359 | 57 | 337 | 0.0 | 0.0 | 0.00 | 0.00 | 0.00 | 79 | 1070.2 |
| 20260906051230 | 57 | 337 | 0.0 | 0.0 | 0.00 | 0.00 | 0.00 | 78 | 1070.2 |
| 20260906051108 | 57 | 337 | 0.0 | 0.0 | 0.00 | 0.00 | 0.00 | 78 | 1070.0 |
| 20260906050948 | 57 | 337 | 0.0 | 0.0 | 0.00 | 0.00 | 0.00 | 78 | 1070.1 |
| 20260906050835 | 56 | 337 | 0.0 | 0.0 | 0.00 | 0.00 | 0.00 | 78 | 1070.1 |
| 20260906050714 | 56 | 337 | 0.0 | 0.0 | 0.00 | 0.00 | 0.00 | 78 | 1070.1 |
| 20260906050601 | 56 | 337 | 0.0 | 0.0 | 0.00 | 0.00 | 0.00 | 78 | 1070.0 |
| 20260906050455 | 56 | 337 | 0.0 | 0.0 | 0.00 | 0.00 | 0.00 | 78 | 1070.0 |
| 20260906050349 | 56 | 337 | 0.0 | 0.0 | 0.00 | 0.00 | 0.00 | 78 | 1070.0 |
| 20260906050241 | 56 | 337 | 0.0 | 0.0 | 0.00 | 0.00 | 0.00 | 78 | 1070.0 |
| 20260906050112 | 56 | 337 | 0.0 | 0.0 | 0.00 | 0.00 | 0.00 | 78 | 1070.0 |
| 20260906045952 | 56 | 315 | 0.0 | 0.0 | 0.00 | 0.00 | 0.00 | 78 | 1070.0 |
| 20260906045831 | 56 | 315 | 0.0 | 0.0 | 0.00 | 0.00 | 0.00 | 78 | 1070.1 |
| 20260906045728 | 56 | 315 | 0.0 | 0.0 | 0.00 | 0.00 | 0.00 | 78 | 1070.1 |
| 20260906045620 | 56 | 315 | 0.0 | 0.0 | 0.00 | 0.00 | 0.00 | 78 | 1070.1 |
| 20260906045507 | 56 | 315 | 0.0 | 0.0 | 0.00 | 0.00 | 0.00 | 78 | 1070.1 |
| 20260906045356 | 57 | 315 | 0.0 | 0.0 | 0.00 | 0.00 | 0.00 | 78 | 1070.1 |
| 20260906045250 | 57 | 315 | 0.0 | 0.0 | 0.00 | 0.00 | 0.00 | 78 | 1070.1 |
| 20260906045146 | 57 | 315 | 0.0 | 0.0 | 0.00 | 0.00 | 0.00 | 78 | 1070.2 |
| 20260906045041 | 57 | 315 | 0.0 | 0.0 | 0.00 | 0.00 | 0.00 | 78 | 1070.1 |
| 20260906044926 | 57 | 292 | 0.0 | 0.0 | 0.00 | 0.00 | 0.00 | 78 | 1070.1 |
| 20260906044813 | 57 | 292 | 0.0 | 0.0 | 0.00 | 0.00 | 0.00 | 78 | 1070.1 |
| 20260906044700 | 57 | 292 | 0.0 | 0.0 | 0.00 | 0.00 | 0.00 | 78 | 1070.1 |
| 20260906044554 | 57 | 292 | 0.0 | 0.0 | 0.00 | 0.00 | 0.00 | 78 | 1070.1 |
| 20260906044440 | 57 | 292 | 0.0 | 0.0 | 0.00 | 0.00 | 0.00 | 78 | 1070.1 |
| 20260906044320 | 57 | 292 | 0.0 | 0.0 | 0.00 | 0.00 | 0.00 | 78 | 1070.1 |
| 20260906044209 | 57 | 270 | 0.0 | 0.0 | 0.00 | 0.00 | 0.00 | 77 | 1070.1 |
| 20260906044103 | 57 | 292 | 0.0 | 0.0 | 0.00 | 0.00 | 0.00 | 77 | 1070.1 |
| 20260906043948 | 57 | 0 | 0.0 | 0.0 | 0.00 | 0.00 | 0.00 | 77 | 1070.1 |
| 20260906043830 | 57 | 315 | 0.0 | 0.0 | 0.00 | 0.00 | 0.00 | 77 | 1070.1 |
| 20260906043725 | 57 | 315 | 0.0 | 0.0 | 0.00 | 0.00 | 0.00 | 77 | 1070.2 |
| 20260906043618 | 57 | 315 | 0.0 | 0.0 | 0.00 | 0.00 | 0.00 | 77 | 1070.2 |
| 20260906043505 | 57 | 292 | 0.0 | 0.0 | 0.00 | 0.00 | 0.00 | 77 | 1070.2 |
| 20260906043343 | 57 | 292 | 0.0 | 0.0 | 0.00 | 0.00 | 0.00 | 77 | 1070.3 |
| 20260906043222 | 57 | 315 | 0.0 | 0.0 | 0.00 | 0.00 | 0.00 | 77 | 1070.3 |
| 20260906043100 | 57 | 292 | 0.0 | 0.0 | 0.00 | 0.00 | 0.00 | 77 | 1070.3 |
| 20260906042947 | 57 | 292 | 0.0 | 0.0 | 0.00 | 0.00 | 0.00 | 77 | 1070.3 |
| 20260906042835 | 57 | 292 | 0.0 | 0.0 | 0.00 | 0.00 | 0.00 | 77 | 1070.3 |
| 20260906042730 | 57 | 292 | 0.0 | 0.0 | 0.00 | 0.00 | 0.00 | 77 | 1070.3 |
| 20260906042625 | 57 | 292 | 0.0 | 0.0 | 0.00 | 0.00 | 0.00 | 77 | 1070.2 |
| 20260906042503 | 57 | 292 | 0.0 | 0.0 | 0.00 | 0.00 | 0.00 | 77 | 1070.2 |
| 20260906042351 | 57 | 292 | 0.0 | 0.0 | 0.00 | 0.00 | 0.00 | 77 | 1070.2 |
| 20260906042245 | 57 | 292 | 0.0 | 0.0 | 0.00 | 0.00 | 0.00 | 77 | 1070.2 |
| 20260906042134 | 57 | 315 | 0.0 | 0.0 | 0.00 | 0.00 | 0.00 | 77 | 1070.1 |
| 20260906042026 | 57 | 292 | 0.0 | 0.0 | 0.00 | 0.00 | 0.00 | 77 | 1070.2 |
| 20260906041858 | 57 | 292 | 0.0 | 0.0 | 0.00 | 0.00 | 0.00 | 77 | 1070.2 |
| 20260906041752 | 57 | 292 | 0.0 | 0.0 | 0.00 | 0.00 | 0.00 | 77 | 1070.1 |
| 20260906041640 | 57 | 292 | 0.0 | 0.0 | 0.00 | 0.00 | 0.00 | 77 | 1070.1 |
| 20260906041534 | 57 | 337 | 0.0 | 0.0 | 0.00 | 0.00 | 0.00 | 77 | 1070.1 |
| 20260906041421 | 57 | 315 | 0.0 | 0.0 | 0.00 | 0.00 | 0.00 | 76 | 1070.1 |
| 20260906041308 | 57 | 315 | 0.0 | 0.0 | 0.00 | 0.00 | 0.00 | 76 | 1070.1 |
| 20260906041146 | 57 | 292 | 0.0 | 0.0 | 0.00 | 0.00 | 0.00 | 76 | 1070.1 |
| 20260906041027 | 57 | 315 | 0.0 | 0.0 | 0.00 | 0.00 | 0.00 | 76 | 1070.1 |
| 20260906040920 | 57 | 315 | 0.0 | 0.0 | 0.00 | 0.00 | 0.00 | 76 | 1070.2 |
| 20260906040806 | 57 | 337 | 0.0 | 0.0 | 0.00 | 0.00 | 0.00 | 76 | 1070.1 |
| 20260906040645 | 57 | 337 | 0.0 | 0.0 | 0.00 | 0.00 | 0.00 | 77 | 1070.1 |
| 20260906040539 | 57 | 315 | 0.0 | 0.0 | 0.00 | 0.00 | 0.00 | 77 | 1070.1 |
| 20260906040411 | 57 | 292 | 0.0 | 0.0 | 0.00 | 0.00 | 0.00 | 77 | 1070.1 |
| 20260906040305 | 57 | 315 | 3.0 | 0.0 | 0.00 | 0.00 | 0.00 | 77 | 1070.1 |
| 20260906040200 | 57 | 315 | 2.0 | 0.0 | 0.00 | 0.00 | 0.00 | 77 | 1070.1 |
| 20260906040049 | 57 | 315 | 0.0 | 0.0 | 0.00 | 0.00 | 0.00 | 77 | 1070.1 |
| 20260906035945 | 57 | 315 | 0.0 | 0.0 | 0.00 | 0.00 | 0.00 | 77 | 1070.0 |
| 20260906035821 | 57 | 315 | 0.0 | 0.0 | 0.00 | 0.00 | 0.00 | 77 | 1070.0 |
| 20260906035716 | 57 | 315 | 0.0 | 0.0 | 0.00 | 0.00 | 0.00 | 77 | 1070.0 |
| 20260906035603 | 57 | 315 | 0.0 | 0.0 | 0.00 | 0.00 | 0.00 | 77 | 1070.0 |
| 20260906035457 | 57 | 292 | 0.0 | 0.0 | 0.00 | 0.00 | 0.00 | 77 | 1070.1 |
| 20260906035336 | 57 | 270 | 0.0 | 0.0 | 0.00 | 0.00 | 0.00 | 77 | 1070.1 |
| 20260906035215 | 57 | 270 | 0.0 | 0.0 | 0.00 | 0.00 | 0.00 | 77 | 1070.1 |
| 20260906035048 | 57 | 292 | 0.0 | 0.0 | 0.00 | 0.00 | 0.00 | 77 | 1069.9 |
| 20260906034933 | 57 | 315 | 0.0 | 0.0 | 0.00 | 0.00 | 0.00 | 77 | 1070.0 |
| 20260906034827 | 57 | 292 | 0.0 | 0.0 | 0.00 | 0.00 | 0.00 | 77 | 1070.0 |
| 20260906034707 | 57 | 292 | 0.0 | 0.0 | 0.00 | 0.00 | 0.00 | 77 | 1069.9 |
| 20260906034556 | 57 | 292 | 0.0 | 0.0 | 0.00 | 0.00 | 0.00 | 77 | 1069.9 |
| 20260906034448 | 57 | 292 | 0.0 | 0.0 | 0.00 | 0.00 | 0.00 | 77 | 1069.9 |
| 20260906034335 | 57 | 292 | 0.0 | 0.0 | 0.00 | 0.00 | 0.00 | 76 | 1069.9 |
| 20260906034230 | 57 | 270 | 0.0 | 0.0 | 0.00 | 0.00 | 0.00 | 76 | 1069.9 |
| 20260906034111 | 57 | 292 | 0.0 | 0.0 | 0.00 | 0.00 | 0.00 | 77 | 1069.9 |
| 20260906034006 | 57 | 292 | 0.0 | 0.0 | 0.00 | 0.00 | 0.00 | 77 | 1069.9 |
| 20260906033901 | 57 | 315 | 0.0 | 0.0 | 0.00 | 0.00 | 0.00 | 77 | 1069.9 |
| 20260906033746 | 57 | 315 | 0.0 | 0.0 | 0.00 | 0.00 | 0.00 | 77 | 1070.0 |
| 20260906033632 | 57 | 270 | 0.0 | 0.0 | 0.00 | 0.00 | 0.00 | 77 | 1070.0 |
| 20260906033514 | 57 | 0 | 0.0 | 0.0 | 0.00 | 0.00 | 0.00 | 77 | 1070.0 |
| 20260906033359 | 57 | 315 | 0.0 | 0.0 | 0.00 | 0.00 | 0.00 | 77 | 1069.9 |
| 20260906033256 | 57 | 315 | 0.0 | 0.0 | 0.00 | 0.00 | 0.00 | 77 | 1069.9 |
| 20260906033148 | 57 | 315 | 0.0 | 0.0 | 0.00 | 0.00 | 0.00 | 76 | 1069.9 |
| 20260906033034 | 57 | 315 | 0.0 | 0.0 | 0.00 | 0.00 | 0.00 | 76 | 1069.8 |
| 20260906032915 | 57 | 292 | 0.0 | 0.0 | 0.00 | 0.00 | 0.00 | 76 | 1069.9 |
| 20260906032800 | 57 | 315 | 0.0 | 0.0 | 0.00 | 0.00 | 0.00 | 76 | 1069.9 |
| 20260906032647 | 57 | 292 | 0.0 | 0.0 | 0.00 | 0.00 | 0.00 | 76 | 1069.9 |
| 20260906032543 | 57 | 315 | 0.0 | 0.0 | 0.00 | 0.00 | 0.00 | 76 | 1069.8 |
| 20260906032438 | 57 | 315 | 0.0 | 0.0 | 0.00 | 0.00 | 0.00 | 76 | 1069.8 |
| 20260906032333 | 57 | 292 | 0.0 | 0.0 | 0.00 | 0.00 | 0.00 | 76 | 1069.9 |
| 20260906032227 | 57 | 292 | 0.0 | 0.0 | 0.00 | 0.00 | 0.00 | 76 | 1069.9 |
| 20260906032100 | 57 | 315 | 0.0 | 0.0 | 0.00 | 0.00 | 0.00 | 76 | 1069.8 |
| 20260906031953 | 57 | 292 | 0.0 | 0.0 | 0.00 | 0.00 | 0.00 | 76 | 1069.8 |
| 20260906031840 | 57 | 292 | 0.0 | 0.0 | 0.00 | 0.00 | 0.00 | 76 | 1069.8 |
| 20260906031718 | 57 | 292 | 0.0 | 0.0 | 0.00 | 0.00 | 0.00 | 76 | 1069.8 |
| 20260906031558 | 57 | 315 | 0.0 | 0.0 | 0.00 | 0.00 | 0.00 | 76 | 1069.8 |
| 20260906031444 | 57 | 292 | 0.0 | 0.0 | 0.00 | 0.00 | 0.00 | 76 | 1069.8 |
| 20260906031332 | 57 | 315 | 0.0 | 0.0 | 0.00 | 0.00 | 0.00 | 76 | 1069.8 |
| 20260906031218 | 57 | 292 | 0.0 | 0.0 | 0.00 | 0.00 | 0.00 | 76 | 1069.8 |
| 20260906031105 | 57 | 315 | 0.0 | 0.0 | 0.00 | 0.00 | 0.00 | 76 | 1069.8 |
| 20260906031000 | 57 | 315 | 0.0 | 0.0 | 0.00 | 0.00 | 0.00 | 76 | 1069.8 |
| 20260906030839 | 57 | 270 | 0.0 | 0.0 | 0.00 | 0.00 | 0.00 | 76 | 1069.8 |
| 20260906030719 | 57 | 337 | 0.0 | 0.0 | 0.00 | 0.00 | 0.00 | 75 | 1069.8 |
| 20260906030612 | 57 | 315 | 0.0 | 0.0 | 0.00 | 0.00 | 0.00 | 75 | 1069.8 |
| 20260906030501 | 57 | 292 | 0.0 | 0.0 | 0.00 | 0.00 | 0.00 | 75 | 1069.8 |
| 20260906030346 | 57 | 292 | 0.0 | 0.0 | 0.00 | 0.00 | 0.00 | 75 | 1069.8 |
| 20260906030226 | 57 | 315 | 0.0 | 0.0 | 0.00 | 0.00 | 0.00 | 75 | 1069.8 |
| 20260906030111 | 57 | 315 | 0.0 | 0.0 | 0.00 | 0.00 | 0.00 | 75 | 1069.8 |
| 20260906025953 | 57 | 292 | 0.0 | 0.0 | 0.00 | 0.00 | 0.00 | 75 | 1069.8 |
| 20260906025846 | 57 | 292 | 0.0 | 0.0 | 0.00 | 0.00 | 0.00 | 75 | 1069.8 |
| 20260906025732 | 57 | 292 | 0.0 | 0.0 | 0.00 | 0.00 | 0.00 | 75 | 1069.8 |
| 20260906025618 | 57 | 315 | 0.0 | 0.0 | 0.00 | 0.00 | 0.00 | 75 | 1069.8 |
| 20260906025434 | 57 | 315 | 0.0 | 0.0 | 0.00 | 0.00 | 0.00 | 75 | 1069.8 |
| 20260906025321 | 57 | 315 | 0.0 | 0.0 | 0.00 | 0.00 | 0.00 | 75 | 1069.7 |
| 20260906025210 | 58 | 337 | 0.0 | 0.0 | 0.00 | 0.00 | 0.00 | 74 | 1069.9 |
| 20260906025101 | 58 | 270 | 0.0 | 0.0 | 0.00 | 0.00 | 0.00 | 74 | 1069.8 |
| 20260906024941 | 58 | 315 | 0.0 | 0.0 | 0.00 | 0.00 | 0.00 | 74 | 1069.7 |
| 20260906024828 | 58 | 315 | 0.0 | 0.0 | 0.00 | 0.00 | 0.00 | 74 | 1069.8 |
| 20260906024715 | 58 | 315 | 0.0 | 0.0 | 0.00 | 0.00 | 0.00 | 74 | 1069.8 |
| 20260906024602 | 58 | 337 | 0.0 | 0.0 | 0.00 | 0.00 | 0.00 | 74 | 1069.8 |
| 20260906024449 | 58 | 292 | 0.0 | 0.0 | 0.00 | 0.00 | 0.00 | 74 | 1069.8 |
| 20260906024338 | 58 | 292 | 0.0 | 0.0 | 0.00 | 0.00 | 0.00 | 74 | 1069.8 |
| 20260906024233 | 58 | 315 | 0.0 | 0.0 | 0.00 | 0.00 | 0.00 | 74 | 1069.8 |
| 20260906024117 | 58 | 315 | 0.0 | 0.0 | 0.00 | 0.00 | 0.00 | 74 | 1069.8 |
| 20260906023948 | 58 | 292 | 4.0 | 0.0 | 0.00 | 0.00 | 0.00 | 74 | 1069.8 |
| 20260906023835 | 58 | 315 | 0.0 | 0.0 | 0.00 | 0.00 | 0.00 | 74 | 1069.8 |
| 20260906023721 | 58 | 315 | 0.0 | 0.0 | 0.00 | 0.00 | 0.00 | 74 | 1069.8 |
| 20260906023610 | 58 | 292 | 0.0 | 0.0 | 0.00 | 0.00 | 0.00 | 74 | 1069.8 |
| 20260906023506 | 58 | 292 | 0.0 | 0.0 | 0.00 | 0.00 | 0.00 | 74 | 1069.8 |
| 20260906023401 | 58 | 315 | 0.0 | 0.0 | 0.00 | 0.00 | 0.00 | 74 | 1069.8 |
| 20260906023253 | 58 | 315 | 0.0 | 0.0 | 0.00 | 0.00 | 0.00 | 74 | 1069.8 |
| 20260906023133 | 58 | 292 | 4.0 | 0.0 | 0.00 | 0.00 | 0.00 | 74 | 1069.7 |
| 20260906023027 | 58 | 292 | 0.0 | 0.0 | 0.00 | 0.00 | 0.00 | 74 | 1069.8 |
| 20260906022915 | 58 | 315 | 0.0 | 0.0 | 0.00 | 0.00 | 0.00 | 74 | 1069.8 |
| 20260906022812 | 58 | 292 | 0.0 | 0.0 | 0.00 | 0.00 | 0.00 | 74 | 1069.8 |
| 20260906022656 | 58 | 0 | 5.0 | 0.0 | 0.00 | 0.00 | 0.00 | 74 | 1069.8 |
| 20260906022543 | 58 | 315 | 0.0 | 0.0 | 0.00 | 0.00 | 0.00 | 73 | 1069.8 |
| 20260906022430 | 58 | 315 | 0.0 | 0.0 | 0.00 | 0.00 | 0.00 | 73 | 1069.8 |
| 20260906022326 | 58 | 315 | 0.0 | 0.0 | 0.00 | 0.00 | 0.00 | 73 | 1069.8 |
| 20260906022214 | 58 | 270 | 0.0 | 0.0 | 0.00 | 0.00 | 0.00 | 73 | 1069.9 |
| 20260906022106 | 58 | 292 | 0.0 | 0.0 | 0.00 | 0.00 | 0.00 | 72 | 1069.9 |
| 20260906021948 | 58 | 292 | 0.0 | 0.0 | 0.00 | 0.00 | 0.00 | 72 | 1069.9 |
| 20260906021843 | 58 | 292 | 0.0 | 0.0 | 0.00 | 0.00 | 0.00 | 72 | 1069.9 |
| 20260906021737 | 58 | 292 | 0.0 | 0.0 | 0.00 | 0.00 | 0.00 | 72 | 1069.8 |
| 20260906021631 | 58 | 315 | 0.0 | 0.0 | 0.00 | 0.00 | 0.00 | 72 | 1069.8 |
| 20260906021519 | 58 | 315 | 0.0 | 0.0 | 0.00 | 0.00 | 0.00 | 72 | 1069.8 |
| 20260906021412 | 58 | 315 | 0.0 | 0.0 | 0.00 | 0.00 | 0.00 | 72 | 1069.9 |
| 20260906021259 | 58 | 315 | 0.0 | 0.0 | 0.00 | 0.00 | 0.00 | 72 | 1069.9 |
| 20260906021138 | 58 | 337 | 0.0 | 0.0 | 0.00 | 0.00 | 0.00 | 72 | 1069.9 |
| 20260906021025 | 58 | 315 | 0.0 | 0.0 | 0.00 | 0.00 | 0.00 | 72 | 1070.0 |
| 20260906020906 | 58 | 315 | 0.0 | 0.0 | 0.00 | 0.00 | 0.00 | 72 | 1069.9 |
| 20260906020758 | 59 | 315 | 0.0 | 0.0 | 0.00 | 0.00 | 0.00 | 72 | 1069.9 |
| 20260906020635 | 59 | 0 | 0.0 | 0.0 | 0.00 | 0.00 | 0.00 | 72 | 1069.9 |
| 20260906020522 | 59 | 315 | 0.0 | 0.0 | 0.00 | 0.00 | 0.00 | 72 | 1069.9 |
| 20260906020418 | 59 | 315 | 0.0 | 0.0 | 0.00 | 0.00 | 0.00 | 72 | 1069.9 |
| 20260906020309 | 59 | 315 | 4.0 | 0.0 | 0.00 | 0.00 | 0.00 | 72 | 1069.9 |
| 20260906020149 | 58 | 22 | 0.0 | 0.0 | 0.00 | 0.00 | 0.00 | 72 | 1069.9 |
| 20260906020038 | 58 | 292 | 6.0 | 0.0 | 0.00 | 0.00 | 0.00 | 72 | 1069.9 |
| 20260906015922 | 58 | 315 | 2.0 | 0.0 | 0.00 | 0.00 | 0.00 | 72 | 1070.0 |
| 20260906015809 | 58 | 337 | 0.0 | 0.0 | 0.00 | 0.00 | 0.00 | 72 | 1069.9 |
| 20260906015658 | 58 | 315 | 0.0 | 0.0 | 0.00 | 0.00 | 0.00 | 72 | 1069.9 |
| 20260906015551 | 58 | 315 | 0.0 | 0.0 | 0.00 | 0.00 | 0.00 | 72 | 1069.9 |
| 20260906015421 | 58 | 292 | 0.0 | 0.0 | 0.00 | 0.00 | 0.00 | 73 | 1069.9 |
| 20260906015305 | 58 | 315 | 0.0 | 0.0 | 0.00 | 0.00 | 0.00 | 73 | 1069.9 |
| 20260906015155 | 58 | 292 | 0.0 | 0.0 | 0.00 | 0.00 | 0.00 | 73 | 1069.9 |
| 20260906015042 | 58 | 315 | 0.0 | 0.0 | 0.00 | 0.00 | 0.00 | 73 | 1069.9 |
| 20260906014922 | 58 | 337 | 0.0 | 0.0 | 0.00 | 0.00 | 0.00 | 72 | 1069.9 |
| 20260906014817 | 58 | 315 | 0.0 | 0.0 | 0.00 | 0.00 | 0.00 | 72 | 1069.9 |
| 20260906014711 | 58 | 315 | 0.0 | 0.0 | 0.00 | 0.00 | 0.00 | 72 | 1069.9 |
| 20260906014558 | 58 | 270 | 0.0 | 0.0 | 0.00 | 0.00 | 0.00 | 72 | 1069.9 |
| 20260906014452 | 58 | 270 | 0.0 | 0.0 | 0.00 | 0.00 | 0.00 | 72 | 1069.9 |
| 20260906014325 | 58 | 315 | 0.0 | 0.0 | 0.00 | 0.00 | 0.00 | 72 | 1069.9 |
| 20260906014219 | 58 | 315 | 0.0 | 0.0 | 0.00 | 0.00 | 0.00 | 72 | 1069.9 |
| 20260906014111 | 58 | 315 | 0.0 | 0.0 | 0.00 | 0.00 | 0.00 | 71 | 1069.9 |
| 20260906013957 | 58 | 0 | 0.0 | 0.0 | 0.00 | 0.00 | 0.00 | 71 | 1069.9 |
| 20260906013851 | 59 | 315 | 0.0 | 0.0 | 0.00 | 0.00 | 0.00 | 71 | 1069.9 |
| 20260906013731 | 59 | 0 | 0.0 | 0.0 | 0.00 | 0.00 | 0.00 | 71 | 1069.9 |
| 20260906013625 | 59 | 315 | 0.0 | 0.0 | 0.00 | 0.00 | 0.00 | 71 | 1069.9 |
| 20260906013512 | 59 | 270 | 3.0 | 0.0 | 0.00 | 0.00 | 0.00 | 71 | 1069.9 |
| 20260906013352 | 59 | 315 | 0.0 | 0.0 | 0.00 | 0.00 | 0.00 | 71 | 1069.9 |
| 20260906013240 | 59 | 315 | 0.0 | 0.0 | 0.00 | 0.00 | 0.00 | 71 | 1069.9 |
| 20260906013125 | 59 | 315 | 0.0 | 0.0 | 0.00 | 0.00 | 0.00 | 71 | 1069.9 |
| 20260906013012 | 59 | 0 | 0.0 | 0.0 | 0.00 | 0.00 | 0.00 | 71 | 1069.9 |
| 20260906012905 | 59 | 315 | 7.0 | 0.0 | 0.00 | 0.00 | 0.00 | 71 | 1069.8 |
| 20260906012754 | 59 | 292 | 0.0 | 0.0 | 0.00 | 0.00 | 0.00 | 71 | 1070.0 |
| 20260906012640 | 58 | 292 | 4.0 | 0.0 | 0.00 | 0.00 | 0.00 | 71 | 1069.8 |
| 20260906012518 | 58 | 0 | 0.0 | 0.0 | 0.00 | 0.00 | 0.00 | 71 | 1069.9 |
| 20260906012405 | 58 | 292 | 0.0 | 0.0 | 0.00 | 0.00 | 0.00 | 71 | 1069.9 |
| 20260906012259 | 58 | 315 | 0.0 | 0.0 | 0.00 | 0.00 | 0.00 | 72 | 1069.9 |
| 20260906012143 | 58 | 315 | 0.0 | 0.0 | 0.00 | 0.00 | 0.00 | 72 | 1069.9 |
| 20260906012032 | 58 | 292 | 6.0 | 0.0 | 0.00 | 0.00 | 0.00 | 72 | 1069.9 |
| 20260906011918 | 58 | 270 | 5.0 | 0.0 | 0.00 | 0.00 | 0.00 | 72 | 1069.8 |
| 20260906011750 | 58 | 337 | 0.0 | 0.0 | 0.00 | 0.00 | 0.00 | 72 | 1069.8 |
| 20260906011647 | 58 | 315 | 0.0 | 0.0 | 0.00 | 0.00 | 0.00 | 72 | 1069.8 |
| 20260906011539 | 58 | 270 | 5.0 | 0.0 | 0.00 | 0.00 | 0.00 | 72 | 1069.9 |
| 20260906011426 | 58 | 292 | 9.0 | 0.0 | 0.00 | 0.00 | 0.00 | 72 | 1069.9 |
| 20260906011321 | 58 | 337 | 0.0 | 0.0 | 0.00 | 0.00 | 0.00 | 72 | 1069.9 |
| 20260906011208 | 58 | 337 | 0.0 | 0.0 | 0.00 | 0.00 | 0.00 | 72 | 1069.9 |
| 20260906011055 | 58 | 292 | 0.0 | 0.0 | 0.00 | 0.00 | 0.00 | 72 | 1069.8 |
| 20260906010941 | 58 | 315 | 6.0 | 0.0 | 0.00 | 0.00 | 0.00 | 72 | 1069.9 |
| 20260906010828 | 58 | 315 | 2.0 | 0.0 | 0.00 | 0.00 | 0.00 | 72 | 1069.8 |
| 20260906010715 | 58 | 292 | 0.0 | 0.0 | 0.00 | 0.00 | 0.00 | 72 | 1069.8 |
| 20260906010602 | 58 | 292 | 2.0 | 0.0 | 0.00 | 0.00 | 0.00 | 72 | 1069.8 |
| 20260906010457 | 58 | 292 | 0.0 | 0.0 | 0.00 | 0.00 | 0.00 | 71 | 1069.8 |
| 20260906010336 | 58 | 337 | 0.0 | 0.0 | 0.00 | 0.00 | 0.00 | 71 | 1069.8 |
| 20260906005900 | 58 | 337 | 2.0 | 0.0 | 0.00 | 0.00 | 0.00 | 72 | 1069.7 |
| 20260906005737 | 58 | 315 | 0.0 | 0.0 | 0.00 | 0.00 | 0.00 | 72 | 1069.7 |
| 20260906005615 | 58 | 315 | 0.0 | 0.0 | 0.00 | 0.00 | 0.00 | 71 | 1069.8 |
| 20260906005454 | 58 | 315 | 0.0 | 0.0 | 0.00 | 0.00 | 0.00 | 71 | 1069.7 |
| 20260906005332 | 58 | 315 | 4.0 | 0.0 | 0.00 | 0.00 | 0.00 | 71 | 1069.7 |
| 20260906005226 | 58 | 270 | 0.0 | 0.0 | 0.00 | 0.00 | 0.00 | 71 | 1069.7 |
| 20260906005114 | 58 | 315 | 0.0 | 0.0 | 0.00 | 0.00 | 0.00 | 71 | 1069.6 |
| 20260906005008 | 58 | 337 | 0.0 | 0.0 | 0.00 | 0.00 | 0.00 | 71 | 1069.6 |
| 20260906004855 | 59 | 337 | 0.0 | 0.0 | 0.00 | 0.00 | 0.00 | 71 | 1069.6 |
| 20260906004744 | 59 | 315 | 0.0 | 0.0 | 0.00 | 0.00 | 0.00 | 71 | 1069.6 |
| 20260906004639 | 59 | 292 | 0.0 | 0.0 | 0.00 | 0.00 | 0.00 | 71 | 1069.6 |
| 20260906004524 | 59 | 337 | 0.0 | 0.0 | 0.00 | 0.00 | 0.00 | 71 | 1069.6 |
| 20260906004411 | 59 | 315 | 0.0 | 0.0 | 0.00 | 0.00 | 0.00 | 71 | 1069.7 |
| 20260906004305 | 58 | 315 | 0.0 | 0.0 | 0.00 | 0.00 | 0.00 | 71 | 1069.7 |
| 20260906004152 | 58 | 337 | 0.0 | 0.0 | 0.00 | 0.00 | 0.00 | 71 | 1069.6 |
| 20260906004022 | 59 | 315 | 3.0 | 0.0 | 0.00 | 0.00 | 0.00 | 72 | 1069.6 |
| 20260906003859 | 59 | 315 | 0.0 | 0.0 | 0.00 | 0.00 | 0.00 | 72 | 1069.6 |
| 20260906003741 | 59 | 337 | 0.0 | 0.0 | 0.00 | 0.00 | 0.00 | 72 | 1069.6 |
| 20260906003625 | 59 | 315 | 4.0 | 0.0 | 0.00 | 0.00 | 0.00 | 72 | 1069.7 |
| 20260906003519 | 59 | 337 | 0.0 | 0.0 | 0.00 | 0.00 | 0.00 | 72 | 1069.7 |
| 20260906003413 | 59 | 337 | 0.0 | 0.0 | 0.00 | 0.00 | 0.00 | 72 | 1069.7 |
| 20260906003308 | 59 | 337 | 0.0 | 0.0 | 0.00 | 0.00 | 0.00 | 72 | 1069.6 |
| 20260906003203 | 59 | 315 | 0.0 | 0.0 | 0.00 | 0.00 | 0.00 | 72 | 1069.6 |
| 20260906003057 | 59 | 337 | 0.0 | 0.0 | 0.00 | 0.00 | 0.00 | 72 | 1069.6 |
| 20260906002944 | 59 | 337 | 0.0 | 0.0 | 0.00 | 0.00 | 0.00 | 72 | 1069.6 |
| 20260906002823 | 59 | 292 | 0.0 | 0.0 | 0.00 | 0.00 | 0.00 | 72 | 1069.6 |
| 20260906002709 | 59 | 315 | 6.0 | 0.0 | 0.00 | 0.00 | 0.00 | 72 | 1069.6 |
| 20260906002559 | 59 | 315 | 0.0 | 0.0 | 0.00 | 0.00 | 0.00 | 72 | 1069.6 |
| 20260906002452 | 59 | 315 | 0.0 | 0.0 | 0.00 | 0.00 | 0.00 | 72 | 1069.6 |
| 20260906002338 | 59 | 337 | 0.0 | 0.0 | 0.00 | 0.00 | 0.00 | 72 | 1069.6 |
| 20260906002208 | 59 | 315 | 5.0 | 0.0 | 0.00 | 0.00 | 0.00 | 72 | 1069.6 |
| 20260906002046 | 59 | 315 | 6.0 | 0.0 | 0.00 | 0.00 | 0.00 | 72 | 1069.6 |
| 20260906001932 | 58 | 0 | 9.0 | 0.0 | 0.00 | 0.00 | 0.00 | 72 | 1069.5 |
| 20260906001826 | 58 | 292 | 4.0 | 0.0 | 0.00 | 0.00 | 0.00 | 73 | 1069.4 |
| 20260906001705 | 58 | 337 | 3.0 | 0.0 | 0.00 | 0.00 | 0.00 | 74 | 1069.4 |
| 20260906001545 | 58 | 337 | 0.0 | 0.0 | 0.00 | 0.00 | 0.00 | 74 | 1069.4 |
| 20260906001431 | 58 | 0 | 0.0 | 0.0 | 0.00 | 0.00 | 0.00 | 74 | 1069.5 |
| 20260906001302 | 58 | 292 | 0.0 | 0.0 | 0.00 | 0.00 | 0.00 | 74 | 1069.4 |
| 20260906001150 | 58 | 337 | 0.0 | 0.0 | 0.00 | 0.00 | 0.00 | 74 | 1069.4 |
| 20260906001035 | 58 | 337 | 7.0 | 0.0 | 0.00 | 0.00 | 0.00 | 74 | 1069.4 |
| 20260906000908 | 58 | 315 | 0.0 | 0.0 | 0.00 | 0.00 | 0.00 | 75 | 1069.4 |
| 20260906000753 | 58 | 315 | 0.0 | 0.0 | 0.00 | 0.00 | 0.00 | 75 | 1069.5 |
| 20260906000640 | 58 | 270 | 0.0 | 0.0 | 0.00 | 0.00 | 0.00 | 75 | 1069.4 |
| 20260906000527 | 58 | 0 | 0.0 | 0.0 | 0.00 | 0.00 | 0.00 | 75 | 1069.5 |
| 20260906000422 | 58 | 315 | 0.0 | 0.0 | 0.00 | 0.00 | 0.00 | 75 | 1069.5 |
| 20260906000311 | 58 | 337 | 0.0 | 0.0 | 0.00 | 0.00 | 0.00 | 74 | 1069.4 |
| 20260906000147 | 58 | 292 | 0.0 | 0.0 | 0.00 | 0.00 | 0.00 | 74 | 1069.5 |
| 20260906000026 | 58 | 292 | 0.0 | 0.0 | 0.00 | 0.00 | 0.00 | 74 | 1069.4 |
| 20260905235905 | 58 | 292 | 0.0 | 0.0 | 0.00 | 0.00 | 0.00 | 74 | 1069.4 |
| 20260905235800 | 58 | 292 | 0.0 | 0.0 | 0.00 | 0.00 | 0.00 | 74 | 1069.4 |
| 20260905235647 | 58 | 292 | 0.0 | 0.0 | 0.00 | 0.00 | 0.00 | 74 | 1069.4 |
| 20260905235543 | 58 | 315 | 0.0 | 0.0 | 0.00 | 0.00 | 0.00 | 73 | 1069.4 |
| 20260905235436 | 58 | 315 | 0.0 | 0.0 | 0.00 | 0.00 | 0.00 | 73 | 1069.5 |
| 20260905235325 | 58 | 315 | 3.0 | 0.0 | 0.00 | 0.00 | 0.00 | 73 | 1069.4 |
| 20260905235218 | 58 | 315 | 4.0 | 0.0 | 0.00 | 0.00 | 0.00 | 72 | 1069.4 |
| 20260905235057 | 58 | 337 | 5.0 | 0.0 | 0.00 | 0.00 | 0.00 | 72 | 1069.4 |
| 20260905234936 | 58 | 337 | 4.0 | 0.0 | 0.00 | 0.00 | 0.00 | 72 | 1069.4 |
| 20260905234815 | 58 | 315 | 6.0 | 0.0 | 0.00 | 0.00 | 0.00 | 72 | 1069.4 |
| 20260905234710 | 58 | 292 | 0.0 | 0.0 | 0.00 | 0.00 | 0.00 | 72 | 1069.4 |
| 20260905234557 | 58 | 315 | 5.0 | 0.0 | 0.00 | 0.00 | 0.00 | 71 | 1069.3 |
| 20260905234452 | 58 | 292 | 4.0 | 0.0 | 0.00 | 0.00 | 0.00 | 71 | 1069.3 |
| 20260905234337 | 58 | 292 | 1.0 | 0.0 | 0.00 | 0.00 | 0.00 | 71 | 1069.2 |
| 20260905234223 | 58 | 315 | 0.0 | 0.0 | 0.00 | 0.00 | 0.00 | 71 | 1069.2 |
| 20260905234109 | 58 | 337 | 0.0 | 0.0 | 0.00 | 0.00 | 0.00 | 71 | 1069.3 |
| 20260905233948 | 58 | 337 | 0.0 | 0.0 | 0.00 | 0.00 | 0.00 | 71 | 1069.2 |
| 20260905233837 | 58 | 315 | 4.0 | 0.0 | 0.00 | 0.00 | 0.00 | 72 | 1069.2 |
| 20260905233729 | 58 | 315 | 5.0 | 0.0 | 0.00 | 0.00 | 0.00 | 72 | 1069.2 |
| 20260905233608 | 59 | 315 | 0.0 | 0.0 | 0.00 | 0.00 | 0.00 | 72 | 1069.3 |
| 20260905233447 | 59 | 337 | 0.0 | 0.0 | 0.00 | 0.00 | 0.00 | 72 | 1069.2 |
| 20260905233333 | 59 | 247 | 0.0 | 0.0 | 0.00 | 0.00 | 0.00 | 72 | 1069.2 |
| 20260905233219 | 59 | 315 | 4.0 | 0.0 | 0.00 | 0.00 | 0.00 | 72 | 1069.2 |
| 20260905233112 | 59 | 0 | 0.0 | 0.0 | 0.00 | 0.00 | 0.00 | 72 | 1069.2 |
| 20260905233008 | 59 | 270 | 0.0 | 0.0 | 0.00 | 0.00 | 0.00 | 72 | 1069.2 |
| 20260905232901 | 59 | 337 | 0.0 | 0.0 | 0.00 | 0.00 | 0.00 | 72 | 1069.2 |
| 20260905232748 | 59 | 315 | 0.0 | 0.0 | 0.00 | 0.00 | 0.00 | 72 | 1069.2 |
| 20260905232639 | 59 | 337 | 0.0 | 0.0 | 0.00 | 0.00 | 0.00 | 72 | 1069.2 |
| 20260905232522 | 59 | 315 | 0.0 | 0.0 | 0.00 | 0.00 | 0.00 | 72 | 1069.2 |
| 20260905232409 | 59 | 0 | 0.0 | 0.0 | 0.00 | 0.00 | 0.00 | 72 | 1069.3 |
| 20260905232306 | 59 | 315 | 0.0 | 0.0 | 0.00 | 0.00 | 0.00 | 72 | 1069.2 |
| 20260905232150 | 59 | 337 | 7.0 | 0.0 | 0.00 | 0.00 | 0.00 | 72 | 1069.2 |
| 20260905232022 | 59 | 292 | 0.0 | 0.0 | 0.00 | 0.00 | 0.00 | 72 | 1069.2 |
| 20260905231916 | 59 | 315 | 8.0 | 0.0 | 0.00 | 0.00 | 0.00 | 72 | 1069.3 |
| 20260905231811 | 59 | 315 | 0.0 | 0.0 | 0.00 | 0.00 | 0.00 | 72 | 1069.3 |
| 20260905231649 | 59 | 315 | 4.0 | 0.0 | 0.00 | 0.00 | 0.00 | 72 | 1069.3 |
| 20260905231529 | 59 | 315 | 9.0 | 0.0 | 0.00 | 0.00 | 0.00 | 72 | 1069.2 |
| 20260905231424 | 59 | 337 | 0.0 | 0.0 | 0.00 | 0.00 | 0.00 | 72 | 1069.2 |
| 20260905231311 | 59 | 337 | 3.0 | 0.0 | 0.00 | 0.00 | 0.00 | 72 | 1069.2 |
| 20260905231151 | 59 | 315 | 0.0 | 0.0 | 0.00 | 0.00 | 0.00 | 72 | 1069.2 |
| 20260905231044 | 59 | 337 | 0.0 | 0.0 | 0.00 | 0.00 | 0.00 | 72 | 1069.1 |
| 20260905230917 | 59 | 315 | 4.0 | 0.0 | 0.00 | 0.00 | 0.00 | 72 | 1069.1 |
| 20260905230809 | 59 | 0 | 0.0 | 0.0 | 0.00 | 0.00 | 0.00 | 72 | 1069.1 |
| 20260905230647 | 59 | 315 | 5.0 | 0.0 | 0.00 | 0.00 | 0.00 | 72 | 1069.1 |
| 20260905230525 | 59 | 0 | 2.0 | 0.0 | 0.00 | 0.00 | 0.00 | 72 | 1069.1 |
| 20260905230420 | 59 | 337 | 11.0 | 0.0 | 0.00 | 0.00 | 0.00 | 72 | 1069.1 |
| 20260905230307 | 59 | 315 | 6.0 | 0.0 | 0.00 | 0.00 | 0.00 | 72 | 1069.0 |
| 20260905230200 | 59 | 315 | 0.0 | 0.0 | 0.00 | 0.00 | 0.00 | 72 | 1069.0 |
| 20260905230037 | 59 | 315 | 0.0 | 0.0 | 0.00 | 0.00 | 0.00 | 72 | 1069.0 |
| 20260905225915 | 59 | 337 | 0.0 | 0.0 | 0.00 | 0.00 | 0.00 | 72 | 1068.9 |
| 20260905225808 | 59 | 315 | 0.0 | 0.0 | 0.00 | 0.00 | 0.00 | 72 | 1068.9 |
| 20260905225655 | 59 | 292 | 0.0 | 0.0 | 0.00 | 0.00 | 0.00 | 72 | 1069.0 |
| 20260905225548 | 59 | 270 | 0.0 | 0.0 | 0.00 | 0.00 | 0.00 | 72 | 1068.9 |
| 20260905225442 | 59 | 315 | 0.0 | 0.0 | 0.00 | 0.00 | 0.00 | 71 | 1069.0 |
| 20260905225329 | 59 | 292 | 0.0 | 0.0 | 0.00 | 0.00 | 0.00 | 71 | 1069.0 |
| 20260905225218 | 59 | 315 | 6.0 | 0.0 | 0.00 | 0.00 | 0.00 | 71 | 1069.1 |
| 20260905225103 | 59 | 315 | 0.0 | 0.0 | 0.00 | 0.00 | 0.00 | 71 | 1069.1 |
| 20260905224941 | 59 | 292 | 6.0 | 0.0 | 0.00 | 0.00 | 0.00 | 71 | 1069.1 |
| 20260905224820 | 59 | 292 | 0.0 | 0.0 | 0.00 | 0.00 | 0.00 | 71 | 1069.0 |
| 20260905224707 | 59 | 315 | 2.0 | 0.0 | 0.00 | 0.00 | 0.00 | 72 | 1069.1 |
| 20260905224554 | 59 | 337 | 7.0 | 0.0 | 0.00 | 0.00 | 0.00 | 72 | 1069.0 |
| 20260905224433 | 59 | 315 | 2.0 | 0.0 | 0.00 | 0.00 | 0.00 | 72 | 1069.0 |
| 20260905224320 | 59 | 315 | 0.0 | 0.0 | 0.00 | 0.00 | 0.00 | 71 | 1069.0 |
| 20260905224215 | 59 | 337 | 0.0 | 0.0 | 0.00 | 0.00 | 0.00 | 71 | 1069.0 |
| 20260905224109 | 59 | 0 | 4.0 | 0.0 | 0.00 | 0.00 | 0.00 | 71 | 1068.9 |
| 20260905223959 | 59 | 337 | 5.0 | 0.0 | 0.00 | 0.00 | 0.00 | 71 | 1068.9 |
| 20260905223852 | 59 | 292 | 0.0 | 0.0 | 0.00 | 0.00 | 0.00 | 70 | 1068.9 |
| 20260905223747 | 59 | 315 | 6.0 | 0.0 | 0.00 | 0.00 | 0.00 | 70 | 1068.9 |
| 20260905223636 | 59 | 315 | 0.0 | 0.0 | 0.00 | 0.00 | 0.00 | 70 | 1068.9 |
| 20260905223520 | 59 | 0 | 0.0 | 0.0 | 0.00 | 0.00 | 0.00 | 69 | 1068.9 |
| 20260905223408 | 59 | 337 | 3.0 | 0.0 | 0.00 | 0.00 | 0.00 | 69 | 1068.8 |
| 20260905223254 | 59 | 315 | 0.0 | 0.0 | 0.00 | 0.00 | 0.00 | 69 | 1068.8 |
| 20260905223135 | 59 | 315 | 0.0 | 0.0 | 0.00 | 0.00 | 0.00 | 69 | 1068.7 |
| 20260905223028 | 59 | 337 | 0.0 | 0.0 | 0.00 | 0.00 | 0.00 | 70 | 1068.7 |
| 20260905222915 | 59 | 337 | 0.0 | 0.0 | 0.00 | 0.00 | 0.00 | 69 | 1068.8 |